Time,TemperatureF,DewpointF,PressureIn,WindDirection,WindDirectionDegrees,WindSpeedMPH,WindSpeedGustMPH,Humidity,HourlyPrecipIn,Conditions,Clouds,dailyrainin,SoftwareType,DateUTC
2013-08-03 00:00:00,65.7,62.4,29.89,WNW,300,0.0,3.0,89,0.00,,,0.19,Wunderground v.1.15,2013-08-03 04:00:00,
2013-08-03 00:04:00,65.8,62.5,29.90,WNW,300,0.0,3.0,89,0.00,,,0.19,Wunderground v.1.15,2013-08-03 04:04:00,
2013-08-03 00:05:00,65.8,62.5,29.89,WNW,300,0.0,1.0,89,0.00,,,0.00,Wunderground v.1.15,2013-08-03 04:05:00,
2013-08-03 00:07:00,65.7,62.4,29.89,WNW,300,0.0,1.0,89,0.00,,,0.00,Wunderground v.1.15,2013-08-03 04:07:00,
2013-08-03 00:08:00,65.7,62.4,29.89,WNW,300,0.0,1.0,89,0.00,,,0.00,Wunderground v.1.15,2013-08-03 04:08:00,
2013-08-03 00:09:00,65.7,62.4,29.89,WNW,300,0.0,1.0,89,0.00,,,0.00,Wunderground v.1.15,2013-08-03 04:09:00,
2013-08-03 00:10:00,65.7,62.4,29.89,WNW,300,0.0,1.0,89,0.00,,,0.00,Wunderground v.1.15,2013-08-03 04:10:00,
2013-08-03 00:12:00,65.6,62.3,29.89,WNW,300,0.0,1.0,89,0.00,,,0.00,Wunderground v.1.15,2013-08-03 04:12:00,
2013-08-03 00:13:00,65.6,62.3,29.89,WNW,300,0.0,1.0,89,0.00,,,0.00,Wunderground v.1.15,2013-08-03 04:13:00,
2013-08-03 00:15:00,65.6,62.3,29.90,WNW,300,1.0,1.0,89,0.00,,,0.00,Wunderground v.1.15,2013-08-03 04:15:00,
2013-08-03 00:16:00,65.6,62.3,29.90,WNW,300,0.0,1.0,89,0.00,,,0.00,Wunderground v.1.15,2013-08-03 04:16:00,
2013-08-03 00:17:00,65.6,62.3,29.89,WNW,300,0.0,1.0,89,0.00,,,0.00,Wunderground v.1.15,2013-08-03 04:17:00,
2013-08-03 00:18:00,65.6,62.3,29.89,WNW,300,0.0,1.0,89,0.00,,,0.00,Wunderground v.1.15,2013-08-03 04:18:00,
2013-08-03 00:20:00,65.5,62.2,29.90,WNW,300,0.0,1.0,89,0.00,,,0.00,Wunderground v.1.15,2013-08-03 04:20:00,
2013-08-03 00:21:00,65.5,62.2,29.90,WNW,300,0.0,1.0,89,0.00,,,0.00,Wunderground v.1.15,2013-08-03 04:21:00,
2013-08-03 00:22:00,65.4,62.4,29.90,WNW,300,0.0,1.0,90,0.00,,,0.00,Wunderground v.1.15,2013-08-03 04:22:00,
2013-08-03 00:23:00,65.4,62.4,29.90,WNW,300,0.0,1.0,90,0.00,,,0.00,Wunderground v.1.15,2013-08-03 04:23:00,
2013-08-03 00:25:00,65.3,62.3,29.90,WNW,300,0.0,0.0,90,0.00,,,0.00,Wunderground v.1.15,2013-08-03 04:25:00,
2013-08-03 00:26:00,65.3,62.3,29.90,WNW,300,0.0,0.0,90,0.00,,,0.00,Wunderground v.1.15,2013-08-03 04:26:00,
2013-08-03 00:29:00,65.2,62.2,29.90,WNW,300,0.0,0.0,90,0.00,,,0.00,Wunderground v.1.15,2013-08-03 04:29:00,
2013-08-03 00:30:00,65.2,62.2,29.90,WNW,300,0.0,0.0,90,0.00,,,0.00,Wunderground v.1.15,2013-08-03 04:30:00,
2013-08-03 00:32:00,65.2,62.2,29.90,WNW,300,0.0,0.0,90,0.00,,,0.00,Wunderground v.1.15,2013-08-03 04:32:00,
2013-08-03 00:33:00,65.1,62.1,29.90,WNW,300,0.0,0.0,90,0.00,,,0.00,Wunderground v.1.15,2013-08-03 04:33:00,
2013-08-03 00:34:00,65.0,62.0,29.90,WNW,300,0.0,0.0,90,0.00,,,0.00,Wunderground v.1.15,2013-08-03 04:34:00,
2013-08-03 00:38:00,64.9,61.9,29.90,WNW,300,0.0,0.0,90,0.00,,,0.00,Wunderground v.1.15,2013-08-03 04:38:00,
2013-08-03 00:40:00,64.9,61.9,29.90,WNW,300,0.0,0.0,90,0.00,,,0.00,Wunderground v.1.15,2013-08-03 04:40:00,
2013-08-03 00:41:00,64.9,61.9,29.89,WNW,300,0.0,0.0,90,0.00,,,0.00,Wunderground v.1.15,2013-08-03 04:41:00,
2013-08-03 00:42:00,64.8,61.8,29.90,WNW,300,0.0,0.0,90,0.00,,,0.00,Wunderground v.1.15,2013-08-03 04:42:00,
2013-08-03 00:44:00,64.8,61.8,29.89,WNW,300,0.0,0.0,90,0.00,,,0.00,Wunderground v.1.15,2013-08-03 04:44:00,
2013-08-03 00:48:00,64.6,61.6,29.90,WNW,300,0.0,0.0,90,0.00,,,0.00,Wunderground v.1.15,2013-08-03 04:48:00,
2013-08-03 00:50:00,64.6,61.6,29.89,WNW,300,0.0,0.0,90,0.00,,,0.00,Wunderground v.1.15,2013-08-03 04:50:00,
2013-08-03 00:51:00,64.5,61.5,29.89,WNW,300,0.0,0.0,90,0.00,,,0.00,Wunderground v.1.15,2013-08-03 04:51:00,
2013-08-03 00:54:00,64.4,61.4,29.89,WNW,300,0.0,0.0,90,0.00,,,0.00,Wunderground v.1.15,2013-08-03 04:54:00,
2013-08-03 00:56:00,64.3,61.3,29.89,WNW,300,0.0,0.0,90,0.00,,,0.00,Wunderground v.1.15,2013-08-03 04:56:00,
2013-08-03 00:57:00,64.3,61.3,29.89,WNW,300,0.0,0.0,90,0.00,,,0.00,Wunderground v.1.15,2013-08-03 04:57:00,
2013-08-03 00:58:00,64.3,61.3,29.89,WNW,300,0.0,0.0,90,0.00,,,0.00,Wunderground v.1.15,2013-08-03 04:58:00,
2013-08-03 01:02:00,64.1,61.1,29.89,WNW,300,0.0,0.0,90,0.00,,,0.00,Wunderground v.1.15,2013-08-03 05:02:00,
2013-08-03 01:04:00,64.1,61.1,29.89,WNW,300,0.0,0.0,90,0.00,,,0.00,Wunderground v.1.15,2013-08-03 05:04:00,
2013-08-03 01:06:00,64.0,61.0,29.89,WNW,300,1.0,1.0,90,0.00,,,0.00,Wunderground v.1.15,2013-08-03 05:06:00,
2013-08-03 01:10:00,63.8,60.8,29.89,WNW,300,0.0,2.0,90,0.00,,,0.00,Wunderground v.1.15,2013-08-03 05:10:00,
2013-08-03 01:12:00,63.7,60.7,29.89,WNW,300,1.0,2.0,90,0.00,,,0.00,Wunderground v.1.15,2013-08-03 05:12:00,
2013-08-03 01:13:00,63.7,60.7,29.89,WNW,300,0.0,2.0,90,0.00,,,0.00,Wunderground v.1.15,2013-08-03 05:13:00,
2013-08-03 01:14:00,63.6,60.6,29.89,WNW,300,0.0,2.0,90,0.00,,,0.00,Wunderground v.1.15,2013-08-03 05:14:00,
2013-08-03 01:17:00,63.5,60.5,29.89,WNW,300,0.0,1.0,90,0.00,,,0.00,Wunderground v.1.15,2013-08-03 05:17:00,
2013-08-03 01:18:00,63.5,60.5,29.89,WNW,300,0.0,1.0,90,0.00,,,0.00,Wunderground v.1.15,2013-08-03 05:18:00,
2013-08-03 01:20:00,63.5,60.5,29.89,WNW,300,0.0,1.0,90,0.00,,,0.00,Wunderground v.1.15,2013-08-03 05:20:00,
2013-08-03 01:22:00,63.4,60.4,29.89,WNW,300,0.0,1.0,90,0.00,,,0.00,Wunderground v.1.15,2013-08-03 05:22:00,
2013-08-03 01:23:00,63.4,60.4,29.88,WNW,300,0.0,1.0,90,0.00,,,0.00,Wunderground v.1.15,2013-08-03 05:23:00,
2013-08-03 01:25:00,63.4,60.4,29.89,WNW,300,0.0,0.0,90,0.00,,,0.00,Wunderground v.1.15,2013-08-03 05:25:00,
2013-08-03 01:26:00,63.4,60.4,29.88,SW,227,0.0,0.0,90,0.00,,,0.00,Wunderground v.1.15,2013-08-03 05:26:00,
2013-08-03 01:29:00,63.3,60.3,29.88,SW,235,2.0,2.0,90,0.00,,,0.00,Wunderground v.1.15,2013-08-03 05:29:00,
2013-08-03 01:31:00,63.4,60.4,29.88,SW,235,1.0,3.0,90,0.00,,,0.00,Wunderground v.1.15,2013-08-03 05:31:00,
2013-08-03 01:32:00,63.4,60.4,29.88,SW,235,1.0,3.0,90,0.00,,,0.00,Wunderground v.1.15,2013-08-03 05:32:00,
2013-08-03 01:34:00,63.4,60.4,29.88,SW,229,3.0,3.0,90,0.00,,,0.00,Wunderground v.1.15,2013-08-03 05:34:00,
2013-08-03 01:35:00,63.4,60.4,29.88,SW,221,0.0,1.0,90,0.00,,,0.00,Wunderground v.1.15,2013-08-03 05:35:00,
2013-08-03 01:36:00,63.4,60.4,29.88,SW,221,1.0,1.0,90,0.00,,,0.00,Wunderground v.1.15,2013-08-03 05:36:00,
2013-08-03 01:38:00,63.5,60.5,29.88,SW,221,3.0,3.0,90,0.00,,,0.00,Wunderground v.1.15,2013-08-03 05:38:00,
2013-08-03 01:39:00,63.5,60.5,29.88,SW,227,1.0,3.0,90,0.00,,,0.00,Wunderground v.1.15,2013-08-03 05:39:00,
2013-08-03 01:42:00,63.6,60.6,29.88,SW,236,2.0,3.0,90,0.00,,,0.00,Wunderground v.1.15,2013-08-03 05:42:00,
2013-08-03 01:43:00,63.7,60.7,29.88,SW,234,2.0,3.0,90,0.00,,,0.00,Wunderground v.1.15,2013-08-03 05:43:00,
2013-08-03 01:44:00,63.8,60.8,29.88,SW,234,1.0,3.0,90,0.00,,,0.00,Wunderground v.1.15,2013-08-03 05:44:00,
2013-08-03 01:46:00,63.9,60.9,29.88,West,261,0.0,2.0,90,0.00,,,0.00,Wunderground v.1.15,2013-08-03 05:46:00,
2013-08-03 01:49:00,64.1,60.8,29.88,WSW,250,1.0,2.0,89,0.00,,,0.00,Wunderground v.1.15,2013-08-03 05:49:00,
2013-08-03 01:50:00,64.1,60.8,29.88,WSW,250,1.0,2.0,89,0.00,,,0.00,Wunderground v.1.15,2013-08-03 05:50:00,
2013-08-03 01:51:00,64.1,60.8,29.88,WSW,250,1.0,2.0,89,0.00,,,0.00,Wunderground v.1.15,2013-08-03 05:51:00,
2013-08-03 01:54:00,64.2,60.9,29.88,WSW,250,2.0,2.0,89,0.00,,,0.00,Wunderground v.1.15,2013-08-03 05:54:00,
2013-08-03 01:56:00,64.3,61.0,29.87,WSW,250,1.0,1.0,89,0.00,,,0.00,Wunderground v.1.15,2013-08-03 05:56:00,
2013-08-03 01:57:00,64.3,61.0,29.87,WSW,248,2.0,2.0,89,0.00,,,0.00,Wunderground v.1.15,2013-08-03 05:57:00,
2013-08-03 01:59:00,64.3,60.7,29.87,WSW,248,1.0,2.0,88,0.00,,,0.00,Wunderground v.1.15,2013-08-03 05:59:00,
2013-08-03 02:00:00,64.4,60.8,29.87,SW,232,2.0,2.0,88,0.00,,,0.00,Wunderground v.1.15,2013-08-03 06:00:00,
2013-08-03 02:02:00,64.4,60.8,29.87,SW,232,1.0,2.0,88,0.00,,,0.00,Wunderground v.1.15,2013-08-03 06:02:00,
2013-08-03 02:03:00,64.4,60.8,29.87,SW,232,0.0,2.0,88,0.00,,,0.00,Wunderground v.1.15,2013-08-03 06:03:00,
2013-08-03 02:05:00,64.4,60.8,29.87,SW,232,2.0,2.0,88,0.00,,,0.00,Wunderground v.1.15,2013-08-03 06:05:00,
2013-08-03 02:07:00,64.4,60.8,29.87,SW,232,1.0,2.0,88,0.00,,,0.00,Wunderground v.1.15,2013-08-03 06:07:00,
2013-08-03 02:08:00,64.4,60.8,29.87,SW,221,3.0,3.0,88,0.00,,,0.00,Wunderground v.1.15,2013-08-03 06:08:00,
2013-08-03 02:10:00,64.4,60.8,29.87,SW,221,2.0,3.0,88,0.00,,,0.00,Wunderground v.1.15,2013-08-03 06:10:00,
2013-08-03 02:12:00,64.4,60.8,29.87,SW,221,2.0,3.0,88,0.00,,,0.00,Wunderground v.1.15,2013-08-03 06:12:00,
2013-08-03 02:15:00,64.3,60.7,29.87,SW,221,0.0,1.0,88,0.00,,,0.00,Wunderground v.1.15,2013-08-03 06:15:00,
2013-08-03 02:16:00,64.3,60.7,29.87,SW,221,1.0,1.0,88,0.00,,,0.00,Wunderground v.1.15,2013-08-03 06:16:00,
2013-08-03 02:18:00,64.3,60.7,29.87,SW,221,0.0,1.0,88,0.00,,,0.00,Wunderground v.1.15,2013-08-03 06:18:00,
2013-08-03 02:19:00,64.2,60.6,29.86,SW,221,1.0,1.0,88,0.00,,,0.00,Wunderground v.1.15,2013-08-03 06:19:00,
2013-08-03 02:24:00,64.2,60.6,29.86,SW,221,0.0,3.0,88,0.00,,,0.00,Wunderground v.1.15,2013-08-03 06:24:00,
2013-08-03 02:25:00,64.2,60.6,29.86,SW,221,1.0,1.0,88,0.00,,,0.00,Wunderground v.1.15,2013-08-03 06:25:00,
2013-08-03 02:26:00,64.1,60.5,29.86,SW,221,2.0,2.0,88,0.00,,,0.00,Wunderground v.1.15,2013-08-03 06:26:00,
2013-08-03 02:29:00,64.1,60.5,29.86,SW,221,1.0,2.0,88,0.00,,,0.00,Wunderground v.1.15,2013-08-03 06:29:00,
2013-08-03 02:30:00,64.1,60.5,29.86,SW,221,0.0,2.0,88,0.00,,,0.00,Wunderground v.1.15,2013-08-03 06:30:00,
2013-08-03 02:31:00,64.1,60.5,29.86,SW,221,0.0,2.0,88,0.00,,,0.00,Wunderground v.1.15,2013-08-03 06:31:00,
2013-08-03 02:32:00,64.0,60.4,29.86,SW,221,0.0,2.0,88,0.00,,,0.00,Wunderground v.1.15,2013-08-03 06:32:00,
2013-08-03 02:34:00,64.0,60.4,29.85,SW,221,0.0,2.0,88,0.00,,,0.00,Wunderground v.1.15,2013-08-03 06:34:00,
2013-08-03 02:35:00,64.0,60.4,29.86,SW,221,0.0,1.0,88,0.00,,,0.00,Wunderground v.1.15,2013-08-03 06:35:00,
2013-08-03 02:36:00,64.0,60.4,29.85,SW,221,0.0,1.0,88,0.00,,,0.00,Wunderground v.1.15,2013-08-03 06:36:00,
2013-08-03 02:37:00,64.0,60.4,29.85,SW,221,0.0,1.0,88,0.00,,,0.00,Wunderground v.1.15,2013-08-03 06:37:00,
2013-08-03 02:39:00,64.0,60.4,29.85,SW,221,0.0,1.0,88,0.00,,,0.00,Wunderground v.1.15,2013-08-03 06:39:00,
2013-08-03 02:40:00,64.0,60.4,29.85,SW,221,0.0,1.0,88,0.00,,,0.00,Wunderground v.1.15,2013-08-03 06:40:00,
2013-08-03 02:41:00,63.9,60.3,29.85,SW,221,0.0,1.0,88,0.00,,,0.00,Wunderground v.1.15,2013-08-03 06:41:00,
2013-08-03 02:42:00,63.9,60.3,29.85,SW,221,0.0,1.0,88,0.00,,,0.00,Wunderground v.1.15,2013-08-03 06:42:00,
2013-08-03 02:45:00,63.9,60.3,29.85,SW,221,2.0,2.0,88,0.00,,,0.00,Wunderground v.1.15,2013-08-03 06:45:00,
2013-08-03 02:46:00,63.9,60.3,29.85,SW,221,0.0,2.0,88,0.00,,,0.00,Wunderground v.1.15,2013-08-03 06:46:00,
2013-08-03 02:47:00,63.8,60.2,29.85,SW,221,1.0,2.0,88,0.00,,,0.00,Wunderground v.1.15,2013-08-03 06:47:00,
2013-08-03 02:50:00,63.8,60.2,29.85,SW,221,0.0,2.0,88,0.00,,,0.00,Wunderground v.1.15,2013-08-03 06:50:00,
2013-08-03 02:51:00,63.8,60.5,29.85,SW,221,0.0,3.0,89,0.00,,,0.00,Wunderground v.1.15,2013-08-03 06:51:00,
2013-08-03 02:52:00,63.8,60.5,29.85,SW,221,1.0,3.0,89,0.00,,,0.00,Wunderground v.1.15,2013-08-03 06:52:00,
2013-08-03 02:55:00,63.8,60.5,29.85,SW,221,0.0,1.0,89,0.00,,,0.00,Wunderground v.1.15,2013-08-03 06:55:00,
2013-08-03 02:56:00,63.8,60.5,29.85,SW,221,1.0,3.0,89,0.00,,,0.00,Wunderground v.1.15,2013-08-03 06:56:00,
2013-08-03 02:57:00,63.8,60.5,29.85,SW,221,0.0,3.0,89,0.00,,,0.00,Wunderground v.1.15,2013-08-03 06:57:00,
2013-08-03 02:58:00,63.8,60.5,29.85,SW,221,1.0,3.0,89,0.00,,,0.00,Wunderground v.1.15,2013-08-03 06:58:00,
2013-08-03 03:00:00,63.8,60.5,29.85,SW,221,0.0,3.0,89,0.00,,,0.00,Wunderground v.1.15,2013-08-03 07:00:00,
2013-08-03 03:01:00,63.8,60.5,29.85,SW,221,0.0,3.0,89,0.00,,,0.00,Wunderground v.1.15,2013-08-03 07:01:00,
2013-08-03 03:02:00,63.8,60.5,29.85,SW,221,0.0,3.0,89,0.00,,,0.00,Wunderground v.1.15,2013-08-03 07:02:00,
2013-08-03 03:03:00,63.8,60.5,29.85,SW,221,0.0,3.0,89,0.00,,,0.00,Wunderground v.1.15,2013-08-03 07:03:00,
2013-08-03 03:07:00,63.8,60.5,29.85,SW,221,0.0,1.0,89,0.00,,,0.00,Wunderground v.1.15,2013-08-03 07:07:00,
2013-08-03 03:08:00,63.8,60.5,29.85,SW,221,0.0,1.0,89,0.00,,,0.00,Wunderground v.1.15,2013-08-03 07:08:00,
2013-08-03 03:12:00,63.8,60.5,29.85,SW,221,0.0,1.0,89,0.00,,,0.00,Wunderground v.1.15,2013-08-03 07:12:00,
2013-08-03 03:13:00,63.7,60.4,29.85,SW,221,0.0,1.0,89,0.00,,,0.00,Wunderground v.1.15,2013-08-03 07:13:00,
2013-08-03 03:17:00,63.7,60.4,29.85,SW,221,0.0,0.0,89,0.00,,,0.00,Wunderground v.1.15,2013-08-03 07:17:00,
2013-08-03 03:18:00,63.6,60.3,29.85,SW,221,0.0,0.0,89,0.00,,,0.00,Wunderground v.1.15,2013-08-03 07:18:00,
2013-08-03 03:22:00,63.6,60.3,29.85,SW,221,0.0,0.0,89,0.00,,,0.00,Wunderground v.1.15,2013-08-03 07:22:00,
2013-08-03 03:23:00,63.6,60.3,29.85,SW,221,0.0,0.0,89,0.00,,,0.00,Wunderground v.1.15,2013-08-03 07:23:00,
2013-08-03 03:27:00,63.4,60.1,29.84,SW,221,0.0,0.0,89,0.00,,,0.00,Wunderground v.1.15,2013-08-03 07:27:00,
2013-08-03 03:28:00,63.4,60.1,29.84,SW,221,0.0,0.0,89,0.00,,,0.00,Wunderground v.1.15,2013-08-03 07:28:00,
2013-08-03 03:33:00,63.3,60.0,29.84,SW,221,0.0,1.0,89,0.00,,,0.00,Wunderground v.1.15,2013-08-03 07:33:00,
2013-08-03 03:38:00,63.2,60.2,29.84,SW,221,0.0,1.0,90,0.00,,,0.00,Wunderground v.1.15,2013-08-03 07:38:00,
2013-08-03 03:39:00,63.2,60.2,29.84,SW,221,1.0,1.0,90,0.00,,,0.00,Wunderground v.1.15,2013-08-03 07:39:00,
2013-08-03 03:43:00,63.1,60.1,29.85,SW,221,0.0,2.0,90,0.00,,,0.00,Wunderground v.1.15,2013-08-03 07:43:00,
2013-08-03 03:44:00,63.1,60.1,29.85,SW,221,0.0,2.0,90,0.00,,,0.00,Wunderground v.1.15,2013-08-03 07:44:00,
2013-08-03 03:48:00,63.1,60.1,29.84,SW,221,0.0,3.0,90,0.00,,,0.00,Wunderground v.1.15,2013-08-03 07:48:00,
2013-08-03 03:49:00,63.0,60.0,29.84,SW,221,1.0,3.0,90,0.00,,,0.00,Wunderground v.1.15,2013-08-03 07:49:00,
2013-08-03 03:53:00,63.0,60.0,29.85,SW,221,0.0,3.0,90,0.00,,,0.00,Wunderground v.1.15,2013-08-03 07:53:00,
2013-08-03 03:54:00,63.0,60.0,29.85,SW,221,3.0,3.0,90,0.00,,,0.00,Wunderground v.1.15,2013-08-03 07:54:00,
2013-08-03 03:59:00,63.0,60.0,29.84,SW,221,1.0,2.0,90,0.00,,,0.00,Wunderground v.1.15,2013-08-03 07:59:00,
2013-08-03 04:00:00,63.0,60.0,29.84,SW,221,2.0,3.0,90,0.00,,,0.00,Wunderground v.1.15,2013-08-03 08:00:00,
2013-08-03 04:04:00,63.1,60.1,29.84,WSW,242,4.0,6.0,90,0.00,,,0.00,Wunderground v.1.15,2013-08-03 08:04:00,
2013-08-03 04:05:00,63.1,60.1,29.84,WSW,241,2.0,2.0,90,0.00,,,0.00,Wunderground v.1.15,2013-08-03 08:05:00,
2013-08-03 04:09:00,63.2,60.2,29.85,WSW,241,0.0,2.0,90,0.00,,,0.00,Wunderground v.1.15,2013-08-03 08:09:00,
2013-08-03 04:10:00,63.2,60.2,29.84,WSW,241,0.0,2.0,90,0.00,,,0.00,Wunderground v.1.15,2013-08-03 08:10:00,
2013-08-03 04:14:00,63.2,60.2,29.84,WSW,241,0.0,2.0,90,0.00,,,0.00,Wunderground v.1.15,2013-08-03 08:14:00,
2013-08-03 04:15:00,63.2,60.2,29.84,WSW,241,0.0,0.0,90,0.00,,,0.00,Wunderground v.1.15,2013-08-03 08:15:00,
2013-08-03 04:19:00,63.2,60.2,29.84,WSW,241,0.0,0.0,90,0.00,,,0.00,Wunderground v.1.15,2013-08-03 08:19:00,
2013-08-03 04:20:00,63.2,60.2,29.84,WSW,241,0.0,0.0,90,0.00,,,0.00,Wunderground v.1.15,2013-08-03 08:20:00,
2013-08-03 04:25:00,63.2,60.2,29.84,WSW,241,0.0,0.0,90,0.00,,,0.00,Wunderground v.1.15,2013-08-03 08:25:00,
2013-08-03 04:30:00,63.2,60.2,29.84,WSW,241,0.0,0.0,90,0.00,,,0.00,Wunderground v.1.15,2013-08-03 08:30:00,
2013-08-03 04:31:00,63.2,60.2,29.84,WSW,241,0.0,0.0,90,0.00,,,0.00,Wunderground v.1.15,2013-08-03 08:31:00,
2013-08-03 04:32:00,63.2,60.2,29.85,WSW,241,0.0,1.0,90,0.00,,,0.00,Wunderground v.1.15,2013-08-03 08:32:00,
2013-08-03 04:35:00,63.1,60.1,29.85,WSW,241,0.0,0.0,90,0.00,,,0.00,Wunderground v.1.15,2013-08-03 08:35:00,
2013-08-03 04:36:00,63.1,60.1,29.85,WSW,241,0.0,0.0,90,0.00,,,0.00,Wunderground v.1.15,2013-08-03 08:36:00,
2013-08-03 04:37:00,63.1,60.1,29.85,WSW,241,0.0,0.0,90,0.00,,,0.00,Wunderground v.1.15,2013-08-03 08:37:00,
2013-08-03 04:40:00,63.0,60.0,29.85,WSW,241,1.0,1.0,90,0.00,,,0.00,Wunderground v.1.15,2013-08-03 08:40:00,
2013-08-03 04:41:00,63.0,60.0,29.85,WSW,241,0.0,2.0,90,0.00,,,0.00,Wunderground v.1.15,2013-08-03 08:41:00,
2013-08-03 04:42:00,63.0,60.0,29.85,WSW,241,1.0,2.0,90,0.00,,,0.00,Wunderground v.1.15,2013-08-03 08:42:00,
2013-08-03 04:43:00,63.0,60.0,29.85,WSW,241,0.0,2.0,90,0.00,,,0.00,Wunderground v.1.15,2013-08-03 08:43:00,
2013-08-03 04:45:00,63.0,60.0,29.85,WSW,241,0.0,0.0,90,0.00,,,0.00,Wunderground v.1.15,2013-08-03 08:45:00,
2013-08-03 04:46:00,63.0,60.0,29.85,WSW,241,0.0,2.0,90,0.00,,,0.00,Wunderground v.1.15,2013-08-03 08:46:00,
2013-08-03 04:47:00,63.0,60.0,29.85,WSW,241,1.0,2.0,90,0.00,,,0.00,Wunderground v.1.15,2013-08-03 08:47:00,
2013-08-03 04:48:00,63.0,60.0,29.85,WSW,241,0.0,3.0,90,0.00,,,0.00,Wunderground v.1.15,2013-08-03 08:48:00,
2013-08-03 04:51:00,63.1,60.1,29.85,WSW,241,1.0,3.0,90,0.00,,,0.00,Wunderground v.1.15,2013-08-03 08:51:00,
2013-08-03 04:52:00,63.1,60.1,29.85,WSW,241,0.0,3.0,90,0.00,,,0.00,Wunderground v.1.15,2013-08-03 08:52:00,
2013-08-03 04:53:00,63.1,60.1,29.85,WSW,241,1.0,3.0,90,0.00,,,0.00,Wunderground v.1.15,2013-08-03 08:53:00,
2013-08-03 04:56:00,63.2,60.2,29.85,WSW,238,0.0,4.0,90,0.00,,,0.00,Wunderground v.1.15,2013-08-03 08:56:00,
2013-08-03 04:57:00,63.2,60.2,29.85,WSW,238,0.0,4.0,90,0.00,,,0.00,Wunderground v.1.15,2013-08-03 08:57:00,
2013-08-03 04:58:00,63.2,60.2,29.85,SW,236,0.0,4.0,90,0.00,,,0.00,Wunderground v.1.15,2013-08-03 08:58:00,
2013-08-03 05:01:00,63.2,60.2,29.85,SW,236,1.0,4.0,90,0.00,,,0.00,Wunderground v.1.15,2013-08-03 09:01:00,
2013-08-03 05:02:00,63.3,60.3,29.85,SW,236,1.0,4.0,90,0.00,,,0.00,Wunderground v.1.15,2013-08-03 09:02:00,
2013-08-03 05:03:00,63.3,60.3,29.85,SW,236,0.0,4.0,90,0.00,,,0.00,Wunderground v.1.15,2013-08-03 09:03:00,
2013-08-03 05:06:00,63.4,60.4,29.85,SW,217,0.0,4.0,90,0.00,,,0.00,Wunderground v.1.15,2013-08-03 09:06:00,
2013-08-03 05:07:00,63.4,60.4,29.85,SW,217,3.0,4.0,90,0.00,,,0.00,Wunderground v.1.15,2013-08-03 09:07:00,
2013-08-03 05:08:00,63.4,60.4,29.85,SW,217,1.0,4.0,90,0.00,,,0.00,Wunderground v.1.15,2013-08-03 09:08:00,
2013-08-03 05:11:00,63.4,60.4,29.85,SSW,211,1.0,4.0,90,0.00,,,0.00,Wunderground v.1.15,2013-08-03 09:11:00,
2013-08-03 05:12:00,63.4,60.4,29.85,SSW,211,5.0,6.0,90,0.00,,,0.00,Wunderground v.1.15,2013-08-03 09:12:00,
2013-08-03 05:13:00,63.5,60.5,29.85,SSW,205,3.0,6.0,90,0.00,,,0.00,Wunderground v.1.15,2013-08-03 09:13:00,
2013-08-03 05:16:00,63.6,60.6,29.85,South,178,1.0,3.0,90,0.00,,,0.00,Wunderground v.1.15,2013-08-03 09:16:00,
2013-08-03 05:17:00,63.6,60.6,29.85,South,178,0.0,3.0,90,0.00,,,0.00,Wunderground v.1.15,2013-08-03 09:17:00,
2013-08-03 05:18:00,63.6,60.6,29.85,South,179,2.0,3.0,90,0.00,,,0.00,Wunderground v.1.15,2013-08-03 09:18:00,
2013-08-03 05:21:00,63.7,60.7,29.84,SW,234,2.0,6.0,90,0.00,,,0.00,Wunderground v.1.15,2013-08-03 09:21:00,
2013-08-03 05:23:00,63.8,60.8,29.84,SW,235,5.0,6.0,90,0.00,,,0.00,Wunderground v.1.15,2013-08-03 09:23:00,
2013-08-03 05:24:00,63.8,60.8,29.85,SSW,213,4.0,6.0,90,0.00,,,0.00,Wunderground v.1.15,2013-08-03 09:24:00,
2013-08-03 05:27:00,64.0,61.0,29.84,WSW,238,2.0,8.0,90,0.00,,,0.00,Wunderground v.1.15,2013-08-03 09:27:00,
2013-08-03 05:28:00,64.0,60.7,29.85,SSW,212,1.0,8.0,89,0.00,,,0.00,Wunderground v.1.15,2013-08-03 09:28:00,
2013-08-03 05:29:00,64.0,60.7,29.85,SW,221,3.0,8.0,89,0.00,,,0.00,Wunderground v.1.15,2013-08-03 09:29:00,
2013-08-03 05:32:00,64.1,60.8,29.85,SW,236,7.0,8.0,89,0.00,,,0.00,Wunderground v.1.15,2013-08-03 09:32:00,
2013-08-03 05:33:00,64.1,60.8,29.85,WSW,238,3.0,8.0,89,0.00,,,0.00,Wunderground v.1.15,2013-08-03 09:33:00,
2013-08-03 05:34:00,64.2,60.9,29.85,West,261,3.0,8.0,89,0.00,,,0.00,Wunderground v.1.15,2013-08-03 09:34:00,
2013-08-03 05:38:00,64.2,60.9,29.85,SSE,159,1.0,6.0,89,0.00,,,0.00,Wunderground v.1.15,2013-08-03 09:38:00,
2013-08-03 05:39:00,64.2,60.9,29.84,SW,228,3.0,6.0,89,0.00,,,0.00,Wunderground v.1.15,2013-08-03 09:39:00,
2013-08-03 05:43:00,64.3,61.0,29.85,SW,227,2.0,6.0,89,0.00,,,0.00,Wunderground v.1.15,2013-08-03 09:43:00,
2013-08-03 05:44:00,64.3,61.0,29.85,SW,227,2.0,6.0,89,0.00,,,0.00,Wunderground v.1.15,2013-08-03 09:44:00,
2013-08-03 05:48:00,64.3,61.0,29.86,SSW,194,1.0,8.0,89,0.00,,,0.00,Wunderground v.1.15,2013-08-03 09:48:00,
2013-08-03 05:49:00,64.4,61.1,29.86,WSW,242,1.0,8.0,89,0.00,,,0.00,Wunderground v.1.15,2013-08-03 09:49:00,
2013-08-03 05:53:00,64.4,61.1,29.86,SW,231,3.0,8.0,89,0.00,,,0.00,Wunderground v.1.15,2013-08-03 09:53:00,
2013-08-03 05:54:00,64.4,60.8,29.86,WSW,252,3.0,8.0,88,0.00,,,0.00,Wunderground v.1.15,2013-08-03 09:54:00,
2013-08-03 05:55:00,64.4,60.8,29.86,WSW,247,3.0,8.0,88,0.00,,,0.00,Wunderground v.1.15,2013-08-03 09:55:00,
2013-08-03 05:58:00,64.4,60.8,29.86,WSW,244,5.0,8.0,88,0.00,,,0.00,Wunderground v.1.15,2013-08-03 09:58:00,
2013-08-03 06:00:00,64.4,60.8,29.86,SW,236,5.0,8.0,88,0.00,,,0.00,Wunderground v.1.15,2013-08-03 10:00:00,
2013-08-03 06:04:00,64.5,60.9,29.85,SSW,205,1.0,8.0,88,0.00,,,0.00,Wunderground v.1.15,2013-08-03 10:04:00,
2013-08-03 06:05:00,64.5,60.9,29.86,SSW,200,4.0,4.0,88,0.00,,,0.00,Wunderground v.1.15,2013-08-03 10:05:00,
2013-08-03 06:09:00,64.5,60.9,29.86,WNW,284,2.0,8.0,88,0.00,,,0.00,Wunderground v.1.15,2013-08-03 10:09:00,
2013-08-03 06:10:00,64.5,60.9,29.86,WSW,255,4.0,8.0,88,0.00,,,0.00,Wunderground v.1.15,2013-08-03 10:10:00,
2013-08-03 06:14:00,64.5,60.9,29.85,SSW,206,5.0,8.0,88,0.00,,,0.00,Wunderground v.1.15,2013-08-03 10:14:00,
2013-08-03 06:15:00,64.5,60.9,29.86,WSW,249,2.0,3.0,88,0.00,,,0.00,Wunderground v.1.15,2013-08-03 10:15:00,
2013-08-03 06:19:00,64.6,61.0,29.86,SSW,211,11.0,11.0,88,0.00,,,0.00,Wunderground v.1.15,2013-08-03 10:19:00,
2013-08-03 06:20:00,64.5,60.9,29.86,South,187,6.0,11.0,88,0.00,,,0.00,Wunderground v.1.15,2013-08-03 10:20:00,
2013-08-03 06:21:00,64.6,61.0,29.86,SW,232,8.0,11.0,88,0.00,,,0.00,Wunderground v.1.15,2013-08-03 10:21:00,
2013-08-03 06:24:00,64.6,61.0,29.86,South,190,2.0,11.0,88,0.00,,,0.00,Wunderground v.1.15,2013-08-03 10:24:00,
2013-08-03 06:25:00,64.6,61.0,29.86,WSW,238,3.0,3.0,88,0.00,,,0.00,Wunderground v.1.15,2013-08-03 10:25:00,
2013-08-03 06:26:00,64.6,61.0,29.86,WSW,248,4.0,5.0,88,0.00,,,0.00,Wunderground v.1.15,2013-08-03 10:26:00,
2013-08-03 06:29:00,64.6,60.6,29.86,West,271,3.0,7.0,87,0.00,,,0.00,Wunderground v.1.15,2013-08-03 10:29:00,
2013-08-03 06:30:00,64.6,60.6,29.86,West,265,3.0,7.0,87,0.00,,,0.00,Wunderground v.1.15,2013-08-03 10:30:00,
2013-08-03 06:31:00,64.6,60.6,29.86,West,263,4.0,7.0,87,0.00,,,0.00,Wunderground v.1.15,2013-08-03 10:31:00,
2013-08-03 06:34:00,64.7,60.7,29.86,East,100,3.0,9.0,87,0.00,,,0.00,Wunderground v.1.15,2013-08-03 10:34:00,
2013-08-03 06:35:00,64.7,60.7,29.86,SE,141,2.0,3.0,87,0.00,,,0.00,Wunderground v.1.15,2013-08-03 10:35:00,
2013-08-03 06:36:00,64.7,60.7,29.86,SE,128,0.0,4.0,87,0.00,,,0.00,Wunderground v.1.15,2013-08-03 10:36:00,
2013-08-03 06:39:00,64.8,60.8,29.86,WSW,242,3.0,7.0,87,0.00,,,0.00,Wunderground v.1.15,2013-08-03 10:39:00,
2013-08-03 06:40:00,64.8,60.8,29.86,SW,229,4.0,7.0,87,0.00,,,0.00,Wunderground v.1.15,2013-08-03 10:40:00,
2013-08-03 06:41:00,64.8,60.8,29.86,SW,229,1.0,7.0,87,0.00,,,0.00,Wunderground v.1.15,2013-08-03 10:41:00,
2013-08-03 06:44:00,64.8,60.8,29.85,SW,235,4.0,7.0,87,0.00,,,0.00,Wunderground v.1.15,2013-08-03 10:44:00,
2013-08-03 06:45:00,64.7,60.7,29.85,South,188,4.0,6.0,87,0.00,,,0.00,Wunderground v.1.15,2013-08-03 10:45:00,
2013-08-03 06:47:00,64.7,60.7,29.85,South,188,0.0,6.0,87,0.00,,,0.00,Wunderground v.1.15,2013-08-03 10:47:00,
2013-08-03 06:49:00,64.8,60.8,29.85,SSW,209,5.0,6.0,87,0.00,,,0.00,Wunderground v.1.15,2013-08-03 10:49:00,
2013-08-03 06:50:00,64.8,60.8,29.85,WSW,238,4.0,6.0,87,0.00,,,0.00,Wunderground v.1.15,2013-08-03 10:50:00,
2013-08-03 06:51:00,64.8,60.8,29.85,WSW,256,4.0,6.0,87,0.00,,,0.00,Wunderground v.1.15,2013-08-03 10:51:00,
2013-08-03 06:53:00,64.8,60.8,29.85,SSW,213,3.0,6.0,87,0.00,,,0.00,Wunderground v.1.15,2013-08-03 10:53:00,
2013-08-03 06:54:00,64.8,60.8,29.85,SW,229,8.0,8.0,87,0.00,,,0.00,Wunderground v.1.15,2013-08-03 10:54:00,
2013-08-03 06:56:00,64.8,60.8,29.85,WSW,242,3.0,7.0,87,0.00,,,0.00,Wunderground v.1.15,2013-08-03 10:56:00,
2013-08-03 06:57:00,64.8,60.8,29.85,SW,216,2.0,7.0,87,0.00,,,0.00,Wunderground v.1.15,2013-08-03 10:57:00,
2013-08-03 06:58:00,64.8,60.8,29.85,SW,216,3.0,7.0,87,0.00,,,0.00,Wunderground v.1.15,2013-08-03 10:58:00,
2013-08-03 06:59:00,64.8,60.8,29.85,West,278,0.0,7.0,87,0.00,,,0.00,Wunderground v.1.15,2013-08-03 10:59:00,
2013-08-03 07:01:00,64.8,60.8,29.85,SW,221,2.0,7.0,87,0.00,,,0.00,Wunderground v.1.15,2013-08-03 11:01:00,
2013-08-03 07:03:00,64.9,60.9,29.85,WSW,256,1.0,7.0,87,0.00,,,0.00,Wunderground v.1.15,2013-08-03 11:03:00,
2013-08-03 07:04:00,64.9,60.6,29.85,SW,236,2.0,3.0,86,0.00,,,0.00,Wunderground v.1.15,2013-08-03 11:04:00,
2013-08-03 07:06:00,64.9,60.9,29.85,SSW,211,1.0,5.0,87,0.00,,,0.00,Wunderground v.1.15,2013-08-03 11:06:00,
2013-08-03 07:07:00,64.9,60.9,29.85,South,190,3.0,5.0,87,0.00,,,0.00,Wunderground v.1.15,2013-08-03 11:07:00,
2013-08-03 07:08:00,64.9,60.6,29.85,SW,223,2.0,5.0,86,0.00,,,0.00,Wunderground v.1.15,2013-08-03 11:08:00,
2013-08-03 07:09:00,64.9,60.6,29.85,SW,225,6.0,6.0,86,0.00,,,0.00,Wunderground v.1.15,2013-08-03 11:09:00,
2013-08-03 07:10:00,65.0,60.7,29.85,WSW,237,3.0,6.0,86,0.00,,,0.00,Wunderground v.1.15,2013-08-03 11:10:00,
2013-08-03 07:12:00,65.0,60.7,29.85,WSW,237,1.0,9.0,86,0.00,,,0.00,Wunderground v.1.15,2013-08-03 11:12:00,
2013-08-03 07:13:00,65.1,60.8,29.85,SW,214,3.0,9.0,86,0.00,,,0.00,Wunderground v.1.15,2013-08-03 11:13:00,
2013-08-03 07:14:00,65.1,60.8,29.85,SW,225,1.0,9.0,86,0.00,,,0.00,Wunderground v.1.15,2013-08-03 11:14:00,
2013-08-03 07:15:00,65.1,60.8,29.85,SW,220,4.0,6.0,86,0.00,,,0.00,Wunderground v.1.15,2013-08-03 11:15:00,
2013-08-03 07:17:00,65.1,60.8,29.85,SW,232,5.0,6.0,86,0.00,,,0.00,Wunderground v.1.15,2013-08-03 11:17:00,
2013-08-03 07:18:00,65.2,60.9,29.85,SSW,201,2.0,6.0,86,0.00,,,0.00,Wunderground v.1.15,2013-08-03 11:18:00,
2013-08-03 07:19:00,65.2,60.9,29.85,SSW,213,3.0,7.0,86,0.00,,,0.00,Wunderground v.1.15,2013-08-03 11:19:00,
2013-08-03 07:20:00,65.2,60.9,29.85,SSW,213,1.0,7.0,86,0.00,,,0.00,Wunderground v.1.15,2013-08-03 11:20:00,
2013-08-03 07:23:00,65.2,60.9,29.85,SSW,209,2.0,7.0,86,0.00,,,0.00,Wunderground v.1.15,2013-08-03 11:23:00,
2013-08-03 07:24:00,65.2,60.9,29.85,NNW,328,1.0,7.0,86,0.00,,,0.00,Wunderground v.1.15,2013-08-03 11:24:00,
2013-08-03 07:26:00,65.3,61.0,29.85,WSW,248,5.0,9.0,86,0.00,,,0.00,Wunderground v.1.15,2013-08-03 11:26:00,
2013-08-03 07:28:00,65.3,61.0,29.86,SW,232,3.0,9.0,86,0.00,,,0.00,Wunderground v.1.15,2013-08-03 11:28:00,
2013-08-03 07:29:00,65.3,61.0,29.86,West,267,1.0,9.0,86,0.00,,,0.00,Wunderground v.1.15,2013-08-03 11:29:00,
2013-08-03 07:31:00,65.3,60.7,29.85,SW,236,6.0,9.0,85,0.00,,,0.00,Wunderground v.1.15,2013-08-03 11:31:00,
2013-08-03 07:33:00,65.3,60.7,29.85,WSW,250,4.0,9.0,85,0.00,,,0.00,Wunderground v.1.15,2013-08-03 11:33:00,
2013-08-03 07:34:00,65.3,60.7,29.85,WSW,247,1.0,9.0,85,0.00,,,0.00,Wunderground v.1.15,2013-08-03 11:34:00,
2013-08-03 07:35:00,65.3,60.7,29.85,SW,221,8.0,9.0,85,0.00,,,0.00,Wunderground v.1.15,2013-08-03 11:35:00,
2013-08-03 07:37:00,65.4,60.8,29.85,West,267,0.0,9.0,85,0.00,,,0.00,Wunderground v.1.15,2013-08-03 11:37:00,
2013-08-03 07:38:00,65.4,61.1,29.85,SW,230,3.0,9.0,86,0.00,,,0.00,Wunderground v.1.15,2013-08-03 11:38:00,
2013-08-03 07:39:00,65.4,60.8,29.86,SW,228,3.0,9.0,85,0.00,,,0.00,Wunderground v.1.15,2013-08-03 11:39:00,
2013-08-03 07:40:00,65.4,60.8,29.86,SW,229,1.0,9.0,85,0.00,,,0.00,Wunderground v.1.15,2013-08-03 11:40:00,
2013-08-03 07:42:00,65.4,60.8,29.86,WSW,254,2.0,9.0,85,0.00,,,0.00,Wunderground v.1.15,2013-08-03 11:42:00,
2013-08-03 07:43:00,65.4,60.8,29.85,WSW,248,1.0,9.0,85,0.00,,,0.00,Wunderground v.1.15,2013-08-03 11:43:00,
2013-08-03 07:44:00,65.4,60.8,29.85,WSW,248,0.0,9.0,85,0.00,,,0.00,Wunderground v.1.15,2013-08-03 11:44:00,
2013-08-03 07:45:00,65.5,60.9,29.85,WSW,246,3.0,3.0,85,0.00,,,0.00,Wunderground v.1.15,2013-08-03 11:45:00,
2013-08-03 07:47:00,65.5,60.9,29.85,NNW,333,1.0,4.0,85,0.00,,,0.00,Wunderground v.1.15,2013-08-03 11:47:00,
2013-08-03 07:48:00,65.6,61.0,29.85,NNW,330,1.0,4.0,85,0.00,,,0.00,Wunderground v.1.15,2013-08-03 11:48:00,
2013-08-03 07:49:00,65.6,61.0,29.85,WNW,287,1.0,4.0,85,0.00,,,0.00,Wunderground v.1.15,2013-08-03 11:49:00,
2013-08-03 07:50:00,65.6,61.0,29.86,SW,224,4.0,4.0,85,0.00,,,0.00,Wunderground v.1.15,2013-08-03 11:50:00,
2013-08-03 07:52:00,65.6,60.6,29.86,West,264,4.0,7.0,84,0.00,,,0.00,Wunderground v.1.15,2013-08-03 11:52:00,
2013-08-03 07:53:00,65.6,60.6,29.86,SW,235,4.0,7.0,84,0.00,,,0.00,Wunderground v.1.15,2013-08-03 11:53:00,
2013-08-03 07:54:00,65.6,60.6,29.86,WSW,242,6.0,8.0,84,0.00,,,0.00,Wunderground v.1.15,2013-08-03 11:54:00,
2013-08-03 07:55:00,65.7,60.7,29.86,West,267,3.0,8.0,84,0.00,,,0.00,Wunderground v.1.15,2013-08-03 11:55:00,
2013-08-03 07:57:00,65.7,60.7,29.86,SSW,196,2.0,8.0,84,0.00,,,0.00,Wunderground v.1.15,2013-08-03 11:57:00,
2013-08-03 07:58:00,65.7,60.7,29.86,SSW,196,1.0,8.0,84,0.00,,,0.00,Wunderground v.1.15,2013-08-03 11:58:00,
2013-08-03 07:59:00,65.8,60.8,29.86,SW,219,2.0,8.0,84,0.00,,,0.00,Wunderground v.1.15,2013-08-03 11:59:00,
2013-08-03 08:00:00,65.8,60.8,29.86,SW,219,1.0,8.0,84,0.00,,,0.00,Wunderground v.1.15,2013-08-03 12:00:00,
2013-08-03 08:02:00,66.0,61.0,29.86,West,263,7.0,9.0,84,0.00,,,0.00,Wunderground v.1.15,2013-08-03 12:02:00,
2013-08-03 08:03:00,66.0,61.0,29.86,SW,215,9.0,9.0,84,0.00,,,0.00,Wunderground v.1.15,2013-08-03 12:03:00,
2013-08-03 08:05:00,66.0,60.7,29.86,SW,222,7.0,7.0,83,0.00,,,0.00,Wunderground v.1.15,2013-08-03 12:05:00,
2013-08-03 08:06:00,66.1,60.8,29.85,West,263,4.0,7.0,83,0.00,,,0.00,Wunderground v.1.15,2013-08-03 12:06:00,
2013-08-03 08:08:00,66.1,60.8,29.85,SW,217,3.0,7.0,83,0.00,,,0.00,Wunderground v.1.15,2013-08-03 12:08:00,
2013-08-03 08:09:00,66.1,60.8,29.85,SW,219,7.0,10.0,83,0.00,,,0.00,Wunderground v.1.15,2013-08-03 12:09:00,
2013-08-03 08:10:00,66.1,60.8,29.85,SW,235,4.0,10.0,83,0.00,,,0.00,Wunderground v.1.15,2013-08-03 12:10:00,
2013-08-03 08:11:00,66.1,60.8,29.85,WSW,245,3.0,10.0,83,0.00,,,0.00,Wunderground v.1.15,2013-08-03 12:11:00,
2013-08-03 08:13:00,66.2,60.5,29.86,SW,234,3.0,10.0,82,0.00,,,0.00,Wunderground v.1.15,2013-08-03 12:13:00,
2013-08-03 08:14:00,66.2,60.5,29.86,WSW,241,1.0,10.0,82,0.00,,,0.00,Wunderground v.1.15,2013-08-03 12:14:00,
2013-08-03 08:15:00,66.2,60.9,29.86,WSW,241,0.0,3.0,83,0.00,,,0.00,Wunderground v.1.15,2013-08-03 12:15:00,
2013-08-03 08:16:00,66.3,61.0,29.86,WSW,241,2.0,3.0,83,0.00,,,0.00,Wunderground v.1.15,2013-08-03 12:16:00,
2013-08-03 08:18:00,66.4,61.1,29.86,SSW,205,1.0,5.0,83,0.00,,,0.00,Wunderground v.1.15,2013-08-03 12:18:00,
2013-08-03 08:20:00,66.5,61.2,29.86,SSW,205,0.0,5.0,83,0.00,,,0.00,Wunderground v.1.15,2013-08-03 12:20:00,
2013-08-03 08:21:00,66.6,61.3,29.86,SSW,205,2.0,5.0,83,0.00,,,0.00,Wunderground v.1.15,2013-08-03 12:21:00,
2013-08-03 08:23:00,66.7,61.0,29.86,SW,232,3.0,5.0,82,0.00,,,0.00,Wunderground v.1.15,2013-08-03 12:23:00,
2013-08-03 08:25:00,66.7,61.0,29.86,WSW,242,4.0,4.0,82,0.00,,,0.00,Wunderground v.1.15,2013-08-03 12:25:00,
2013-08-03 08:26:00,66.7,61.0,29.86,SSE,166,7.0,9.0,82,0.00,,,0.00,Wunderground v.1.15,2013-08-03 12:26:00,
2013-08-03 08:28:00,66.7,60.7,29.86,WSW,239,0.0,9.0,81,0.00,,,0.00,Wunderground v.1.15,2013-08-03 12:28:00,
2013-08-03 08:30:00,66.8,61.1,29.86,WSW,239,2.0,9.0,82,0.00,,,0.00,Wunderground v.1.15,2013-08-03 12:30:00,
2013-08-03 08:31:00,66.9,61.2,29.86,WSW,240,1.0,9.0,82,0.00,,,0.00,Wunderground v.1.15,2013-08-03 12:31:00,
2013-08-03 08:32:00,66.9,61.2,29.86,SW,234,3.0,9.0,82,0.00,,,0.00,Wunderground v.1.15,2013-08-03 12:32:00,
2013-08-03 08:33:00,66.9,60.9,29.86,WSW,254,3.0,9.0,81,0.00,,,0.00,Wunderground v.1.15,2013-08-03 12:33:00,
2013-08-03 08:36:00,66.8,60.8,29.86,South,187,2.0,8.0,81,0.00,,,0.00,Wunderground v.1.15,2013-08-03 12:36:00,
2013-08-03 08:37:00,66.8,60.8,29.86,SW,218,2.0,8.0,81,0.00,,,0.00,Wunderground v.1.15,2013-08-03 12:37:00,
2013-08-03 08:38:00,66.9,60.9,29.86,West,276,2.0,8.0,81,0.00,,,0.00,Wunderground v.1.15,2013-08-03 12:38:00,
2013-08-03 08:41:00,66.9,60.9,29.86,West,261,6.0,8.0,81,0.00,,,0.00,Wunderground v.1.15,2013-08-03 12:41:00,
2013-08-03 08:42:00,67.0,61.0,29.85,WSW,251,2.0,8.0,81,0.00,,,0.00,Wunderground v.1.15,2013-08-03 12:42:00,
2013-08-03 08:43:00,67.0,61.0,29.86,WNW,285,1.0,8.0,81,0.00,,,0.00,Wunderground v.1.15,2013-08-03 12:43:00,
2013-08-03 08:46:00,67.1,60.7,29.86,WSW,243,4.0,9.0,80,0.00,,,0.00,Wunderground v.1.15,2013-08-03 12:46:00,
2013-08-03 08:47:00,67.2,61.2,29.86,WNW,287,1.0,9.0,81,0.00,,,0.00,Wunderground v.1.15,2013-08-03 12:47:00,
2013-08-03 08:48:00,67.2,61.2,29.86,WSW,253,3.0,9.0,81,0.00,,,0.00,Wunderground v.1.15,2013-08-03 12:48:00,
2013-08-03 08:52:00,67.4,60.7,29.86,West,264,3.0,9.0,79,0.00,,,0.00,Wunderground v.1.15,2013-08-03 12:52:00,
2013-08-03 08:53:00,67.4,61.0,29.86,WSW,246,4.0,9.0,80,0.00,,,0.00,Wunderground v.1.15,2013-08-03 12:53:00,
2013-08-03 08:54:00,67.5,60.8,29.86,WNW,298,2.0,9.0,79,0.00,,,0.00,Wunderground v.1.15,2013-08-03 12:54:00,
2013-08-03 08:57:00,67.6,60.9,29.86,West,273,2.0,7.0,79,0.00,,,0.00,Wunderground v.1.15,2013-08-03 12:57:00,
2013-08-03 08:58:00,67.6,60.9,29.86,West,261,2.0,7.0,79,0.00,,,0.00,Wunderground v.1.15,2013-08-03 12:58:00,
2013-08-03 09:00:00,67.7,61.0,29.86,West,275,1.0,7.0,79,0.00,,,0.00,Wunderground v.1.15,2013-08-03 13:00:00,
2013-08-03 09:02:00,67.7,61.0,29.86,WSW,252,9.0,10.0,79,0.00,,,0.00,Wunderground v.1.15,2013-08-03 13:02:00,
2013-08-03 09:03:00,67.8,61.0,29.86,WSW,243,0.0,10.0,79,0.00,,,0.00,Wunderground v.1.15,2013-08-03 13:03:00,
2013-08-03 09:05:00,67.8,61.0,29.85,NW,309,2.0,3.0,79,0.00,,,0.00,Wunderground v.1.15,2013-08-03 13:05:00,
2013-08-03 09:08:00,67.9,61.1,29.86,SW,232,6.0,8.0,79,0.00,,,0.00,Wunderground v.1.15,2013-08-03 13:08:00,
2013-08-03 09:10:00,68.0,61.2,29.86,NW,313,5.0,8.0,79,0.00,,,0.00,Wunderground v.1.15,2013-08-03 13:10:00,
2013-08-03 09:13:00,68.1,61.0,29.86,WSW,257,8.0,9.0,78,0.00,,,0.00,Wunderground v.1.15,2013-08-03 13:13:00,
2013-08-03 09:15:00,68.3,61.2,29.86,WNW,302,4.0,4.0,78,0.00,,,0.00,Wunderground v.1.15,2013-08-03 13:15:00,
2013-08-03 09:18:00,68.4,61.6,29.86,WSW,240,6.0,6.0,79,0.00,,,0.00,Wunderground v.1.15,2013-08-03 13:18:00,
2013-08-03 09:19:00,68.4,61.3,29.86,NW,315,3.0,8.0,78,0.00,,,0.00,Wunderground v.1.15,2013-08-03 13:19:00,
2013-08-03 09:20:00,68.5,61.4,29.86,WNW,286,1.0,8.0,78,0.00,,,0.00,Wunderground v.1.15,2013-08-03 13:20:00,
2013-08-03 09:23:00,68.6,61.5,29.86,WSW,244,2.0,8.0,78,0.00,,,0.00,Wunderground v.1.15,2013-08-03 13:23:00,
2013-08-03 09:24:00,68.7,61.9,29.86,WSW,242,2.0,8.0,79,0.00,,,0.00,Wunderground v.1.15,2013-08-03 13:24:00,
2013-08-03 09:25:00,68.7,61.9,29.86,SW,220,3.0,3.0,79,0.00,,,0.00,Wunderground v.1.15,2013-08-03 13:25:00,
2013-08-03 09:28:00,68.7,61.6,29.85,SSW,213,2.0,6.0,78,0.00,,,0.00,Wunderground v.1.15,2013-08-03 13:28:00,
2013-08-03 09:29:00,68.7,61.6,29.85,WSW,248,3.0,6.0,78,0.00,,,0.00,Wunderground v.1.15,2013-08-03 13:29:00,
2013-08-03 09:31:00,68.8,62.0,29.86,WSW,246,2.0,6.0,79,0.00,,,0.00,Wunderground v.1.15,2013-08-03 13:31:00,
2013-08-03 09:33:00,68.8,61.7,29.85,WNW,296,2.0,8.0,78,0.00,,,0.00,Wunderground v.1.15,2013-08-03 13:33:00,
2013-08-03 09:34:00,68.8,61.7,29.85,SSW,211,4.0,8.0,78,0.00,,,0.00,Wunderground v.1.15,2013-08-03 13:34:00,
2013-08-03 09:36:00,68.8,61.7,29.85,WSW,254,2.0,4.0,78,0.00,,,0.00,Wunderground v.1.15,2013-08-03 13:36:00,
2013-08-03 09:38:00,68.8,61.7,29.85,WNW,295,3.0,4.0,78,0.00,,,0.00,Wunderground v.1.15,2013-08-03 13:38:00,
2013-08-03 09:39:00,68.8,61.7,29.86,SW,232,3.0,4.0,78,0.00,,,0.00,Wunderground v.1.15,2013-08-03 13:39:00,
2013-08-03 09:42:00,68.7,61.6,29.86,West,279,3.0,10.0,78,0.00,,,0.00,Wunderground v.1.15,2013-08-03 13:42:00,
2013-08-03 09:44:00,68.7,61.2,29.86,WNW,284,3.0,10.0,77,0.00,,,0.00,Wunderground v.1.15,2013-08-03 13:44:00,
2013-08-03 09:47:00,68.7,61.6,29.86,West,267,1.0,6.0,78,0.00,,,0.00,Wunderground v.1.15,2013-08-03 13:47:00,
2013-08-03 09:49:00,68.7,61.2,29.86,WSW,245,3.0,6.0,77,0.00,,,0.00,Wunderground v.1.15,2013-08-03 13:49:00,
2013-08-03 09:52:00,68.6,61.5,29.86,NW,318,3.0,7.0,78,0.00,,,0.00,Wunderground v.1.15,2013-08-03 13:52:00,
2013-08-03 09:54:00,68.6,61.5,29.86,WNW,288,2.0,8.0,78,0.00,,,0.00,Wunderground v.1.15,2013-08-03 13:54:00,
2013-08-03 09:55:00,68.6,61.5,29.86,NNW,339,3.0,8.0,78,0.00,,,0.00,Wunderground v.1.15,2013-08-03 13:55:00,
2013-08-03 09:57:00,68.5,61.4,29.87,WNW,301,4.0,13.0,78,0.00,,,0.00,Wunderground v.1.15,2013-08-03 13:57:00,
2013-08-03 09:59:00,68.5,61.0,29.87,NNW,343,3.0,13.0,77,0.00,,,0.00,Wunderground v.1.15,2013-08-03 13:59:00,
2013-08-03 10:00:00,68.5,61.0,29.87,SW,223,5.0,13.0,77,0.00,,,0.00,Wunderground v.1.15,2013-08-03 14:00:00,
2013-08-03 10:02:00,68.5,61.4,29.86,WSW,240,4.0,13.0,78,0.00,,,0.00,Wunderground v.1.15,2013-08-03 14:02:00,
2013-08-03 10:04:00,68.5,61.0,29.87,WNW,291,1.0,13.0,77,0.00,,,0.00,Wunderground v.1.15,2013-08-03 14:04:00,
2013-08-03 10:05:00,68.5,61.0,29.87,West,279,4.0,13.0,77,0.00,,,0.00,Wunderground v.1.15,2013-08-03 14:05:00,
2013-08-03 10:07:00,68.5,61.7,29.86,WNW,298,1.0,8.0,79,0.00,,,0.00,Wunderground v.1.15,2013-08-03 14:07:00,
2013-08-03 10:09:00,68.6,62.5,29.86,WNW,298,3.0,8.0,81,0.00,,,0.00,Wunderground v.1.15,2013-08-03 14:09:00,
2013-08-03 10:10:00,68.6,61.8,29.86,WNW,291,1.0,8.0,79,0.00,,,0.00,Wunderground v.1.15,2013-08-03 14:10:00,
2013-08-03 10:12:00,68.5,61.0,29.87,West,266,1.0,8.0,77,0.00,,,0.00,Wunderground v.1.15,2013-08-03 14:12:00,
2013-08-03 10:14:00,68.5,61.7,29.87,West,266,1.0,8.0,79,0.00,,,0.00,Wunderground v.1.15,2013-08-03 14:14:00,
2013-08-03 10:15:00,68.5,61.4,29.86,WNW,294,4.0,6.0,78,0.00,,,0.00,Wunderground v.1.15,2013-08-03 14:15:00,
2013-08-03 10:17:00,68.6,61.5,29.86,WSW,254,0.0,10.0,78,0.00,,,0.00,Wunderground v.1.15,2013-08-03 14:17:00,
2013-08-03 10:20:00,68.9,62.5,29.86,WSW,254,0.0,10.0,80,0.00,,,0.00,Wunderground v.1.15,2013-08-03 14:20:00,
2013-08-03 10:23:00,68.9,61.4,29.86,WNW,283,3.0,10.0,77,0.00,,,0.00,Wunderground v.1.15,2013-08-03 14:23:00,
2013-08-03 10:25:00,68.8,61.3,29.86,SW,221,0.0,2.0,77,0.00,,,0.00,Wunderground v.1.15,2013-08-03 14:25:00,
2013-08-03 10:26:00,68.7,61.2,29.86,SW,221,0.0,2.0,77,0.00,,,0.00,Wunderground v.1.15,2013-08-03 14:26:00,
2013-08-03 10:28:00,68.6,61.5,29.86,WSW,239,2.0,4.0,78,0.00,,,0.00,Wunderground v.1.15,2013-08-03 14:28:00,
2013-08-03 10:30:00,68.6,61.1,29.86,South,182,1.0,4.0,77,0.00,,,0.00,Wunderground v.1.15,2013-08-03 14:30:00,
2013-08-03 10:31:00,68.6,61.1,29.86,South,186,1.0,4.0,77,0.00,,,0.00,Wunderground v.1.15,2013-08-03 14:31:00,
2013-08-03 10:33:00,68.5,61.0,29.86,SSW,192,1.0,7.0,77,0.00,,,0.00,Wunderground v.1.15,2013-08-03 14:33:00,
2013-08-03 10:35:00,68.4,61.3,29.86,SW,221,2.0,5.0,78,0.00,,,0.00,Wunderground v.1.15,2013-08-03 14:35:00,
2013-08-03 10:36:00,68.4,61.3,29.86,SW,221,3.0,5.0,78,0.00,,,0.00,Wunderground v.1.15,2013-08-03 14:36:00,
2013-08-03 10:39:00,68.3,60.8,29.86,SW,235,1.0,5.0,77,0.00,,,0.00,Wunderground v.1.15,2013-08-03 14:39:00,
2013-08-03 10:41:00,68.3,60.8,29.86,West,261,3.0,5.0,77,0.00,,,0.00,Wunderground v.1.15,2013-08-03 14:41:00,
2013-08-03 10:44:00,68.3,60.8,29.86,WSW,250,2.0,7.0,77,0.00,,,0.00,Wunderground v.1.15,2013-08-03 14:44:00,
2013-08-03 10:46:00,68.3,60.8,29.86,South,184,1.0,9.0,77,0.00,,,0.00,Wunderground v.1.15,2013-08-03 14:46:00,
2013-08-03 10:48:00,68.3,61.2,29.86,SW,219,2.0,9.0,78,0.00,,,0.00,Wunderground v.1.15,2013-08-03 14:48:00,
2013-08-03 10:49:00,68.3,61.2,29.86,SSW,208,2.0,9.0,78,0.00,,,0.00,Wunderground v.1.15,2013-08-03 14:49:00,
2013-08-03 10:52:00,68.3,61.2,29.86,SW,232,3.0,9.0,78,0.00,,,0.00,Wunderground v.1.15,2013-08-03 14:52:00,
2013-08-03 10:53:00,68.3,61.2,29.86,SW,228,1.0,9.0,78,0.00,,,0.00,Wunderground v.1.15,2013-08-03 14:53:00,
2013-08-03 10:55:00,68.3,61.2,29.86,SW,228,2.0,2.0,78,0.00,,,0.00,Wunderground v.1.15,2013-08-03 14:55:00,
2013-08-03 10:57:00,68.3,61.2,29.86,SSW,211,1.0,3.0,78,0.00,,,0.00,Wunderground v.1.15,2013-08-03 14:57:00,
2013-08-03 10:58:00,68.3,61.2,29.86,SSW,210,3.0,3.0,78,0.00,,,0.00,Wunderground v.1.15,2013-08-03 14:58:00,
2013-08-03 11:00:00,68.4,61.3,29.86,SSW,206,0.0,5.0,78,0.00,,,0.00,Wunderground v.1.15,2013-08-03 15:00:00,
2013-08-03 11:02:00,68.4,61.3,29.86,NW,304,0.0,5.0,78,0.00,,,0.00,Wunderground v.1.15,2013-08-03 15:02:00,
2013-08-03 11:03:00,68.4,61.3,29.86,SSW,199,2.0,5.0,78,0.00,,,0.00,Wunderground v.1.15,2013-08-03 15:03:00,
2013-08-03 11:05:00,68.4,61.3,29.86,WSW,246,3.0,3.0,78,0.00,,,0.00,Wunderground v.1.15,2013-08-03 15:05:00,
2013-08-03 11:07:00,68.3,61.5,29.86,WSW,246,2.0,4.0,79,0.00,,,0.00,Wunderground v.1.15,2013-08-03 15:07:00,
2013-08-03 11:08:00,68.2,61.1,29.86,SW,227,3.0,4.0,78,0.00,,,0.00,Wunderground v.1.15,2013-08-03 15:08:00,
2013-08-03 11:10:00,68.2,61.1,29.86,South,182,2.0,4.0,78,0.00,,,0.00,Wunderground v.1.15,2013-08-03 15:10:00,
2013-08-03 11:12:00,68.1,61.3,29.86,SW,229,4.0,5.0,79,0.00,,,0.00,Wunderground v.1.15,2013-08-03 15:12:00,
2013-08-03 11:13:00,68.1,61.3,29.86,SW,215,4.0,5.0,79,0.00,,,0.00,Wunderground v.1.15,2013-08-03 15:13:00,
2013-08-03 11:15:00,68.1,61.3,29.86,SW,230,4.0,4.0,79,0.00,,,0.00,Wunderground v.1.15,2013-08-03 15:15:00,
2013-08-03 11:18:00,68.1,61.3,29.86,WSW,249,1.0,4.0,79,0.00,,,0.00,Wunderground v.1.15,2013-08-03 15:18:00,
2013-08-03 11:20:00,68.1,61.0,29.86,SW,223,5.0,8.0,78,0.00,,,0.00,Wunderground v.1.15,2013-08-03 15:20:00,
2013-08-03 11:23:00,68.1,61.0,29.86,SW,228,2.0,8.0,78,0.00,,,0.00,Wunderground v.1.15,2013-08-03 15:23:00,
2013-08-03 11:24:00,68.1,61.0,29.86,SSW,196,1.0,8.0,78,0.00,,,0.00,Wunderground v.1.15,2013-08-03 15:24:00,
2013-08-03 11:27:00,68.3,61.2,29.86,West,275,3.0,3.0,78,0.00,,,0.00,Wunderground v.1.15,2013-08-03 15:27:00,
2013-08-03 11:28:00,68.3,61.2,29.86,West,275,2.0,3.0,78,0.00,,,0.00,Wunderground v.1.15,2013-08-03 15:28:00,
2013-08-03 11:29:00,68.3,61.2,29.86,WSW,258,6.0,6.0,78,0.00,,,0.00,Wunderground v.1.15,2013-08-03 15:29:00,
2013-08-03 11:32:00,68.3,61.2,29.86,SW,221,1.0,6.0,78,0.00,,,0.00,Wunderground v.1.15,2013-08-03 15:32:00,
2013-08-03 11:33:00,68.3,61.5,29.86,West,281,2.0,6.0,79,0.00,,,0.00,Wunderground v.1.15,2013-08-03 15:33:00,
2013-08-03 11:34:00,68.3,61.2,29.86,West,275,2.0,6.0,78,0.00,,,0.00,Wunderground v.1.15,2013-08-03 15:34:00,
2013-08-03 11:37:00,68.5,61.4,29.86,WSW,252,2.0,2.0,78,0.00,,,0.00,Wunderground v.1.15,2013-08-03 15:37:00,
2013-08-03 11:38:00,68.6,61.5,29.86,WSW,249,4.0,4.0,78,0.00,,,0.00,Wunderground v.1.15,2013-08-03 15:38:00,
2013-08-03 11:39:00,68.6,61.5,29.86,WSW,249,1.0,4.0,78,0.00,,,0.00,Wunderground v.1.15,2013-08-03 15:39:00,
2013-08-03 11:40:00,68.6,61.5,29.86,North,350,2.0,4.0,78,0.00,,,0.00,Wunderground v.1.15,2013-08-03 15:40:00,
2013-08-03 11:42:00,68.7,61.6,29.86,WSW,257,3.0,4.0,78,0.00,,,0.00,Wunderground v.1.15,2013-08-03 15:42:00,
2013-08-03 11:43:00,68.7,61.6,29.86,NNW,348,3.0,4.0,78,0.00,,,0.00,Wunderground v.1.15,2013-08-03 15:43:00,
2013-08-03 11:44:00,68.7,61.6,29.86,NNW,342,1.0,4.0,78,0.00,,,0.00,Wunderground v.1.15,2013-08-03 15:44:00,
2013-08-03 11:45:00,68.8,61.7,29.86,SSW,198,2.0,3.0,78,0.00,,,0.00,Wunderground v.1.15,2013-08-03 15:45:00,
2013-08-03 11:47:00,68.9,61.4,29.85,SSW,195,3.0,9.0,77,0.00,,,0.00,Wunderground v.1.15,2013-08-03 15:47:00,
2013-08-03 11:48:00,68.9,61.4,29.85,SW,230,4.0,9.0,77,0.00,,,0.00,Wunderground v.1.15,2013-08-03 15:48:00,
2013-08-03 11:49:00,68.8,61.3,29.85,WSW,245,3.0,9.0,77,0.00,,,0.00,Wunderground v.1.15,2013-08-03 15:49:00,
2013-08-03 11:50:00,68.8,61.7,29.85,WSW,244,3.0,9.0,78,0.00,,,0.00,Wunderground v.1.15,2013-08-03 15:50:00,
2013-08-03 11:52:00,69.0,61.9,29.85,WNW,303,3.0,9.0,78,0.00,,,0.00,Wunderground v.1.15,2013-08-03 15:52:00,
2013-08-03 11:54:00,69.0,61.9,29.85,NW,312,3.0,9.0,78,0.00,,,0.00,Wunderground v.1.15,2013-08-03 15:54:00,
2013-08-03 11:55:00,69.1,61.6,29.85,WSW,254,4.0,9.0,77,0.00,,,0.00,Wunderground v.1.15,2013-08-03 15:55:00,
2013-08-03 11:58:00,69.2,61.7,29.85,WSW,246,2.0,9.0,77,0.00,,,0.00,Wunderground v.1.15,2013-08-03 15:58:00,
2013-08-03 11:59:00,69.2,61.7,29.85,SW,235,2.0,9.0,77,0.00,,,0.00,Wunderground v.1.15,2013-08-03 15:59:00,
2013-08-03 12:00:00,69.3,61.8,29.85,NW,311,5.0,9.0,77,0.00,,,0.00,Wunderground v.1.15,2013-08-03 16:00:00,
2013-08-03 12:03:00,69.5,62.3,29.85,West,278,6.0,9.0,78,0.00,,,0.00,Wunderground v.1.15,2013-08-03 16:03:00,
2013-08-03 12:04:00,69.5,62.3,29.85,WSW,250,3.0,9.0,78,0.00,,,0.00,Wunderground v.1.15,2013-08-03 16:04:00,
2013-08-03 12:05:00,69.7,61.8,29.85,SSW,192,2.0,3.0,76,0.00,,,0.00,Wunderground v.1.15,2013-08-03 16:05:00,
2013-08-03 12:08:00,69.9,62.0,29.86,South,179,5.0,11.0,76,0.00,,,0.00,Wunderground v.1.15,2013-08-03 16:08:00,
2013-08-03 12:09:00,69.9,61.6,29.86,WSW,238,3.0,11.0,75,0.00,,,0.00,Wunderground v.1.15,2013-08-03 16:09:00,
2013-08-03 12:10:00,69.9,61.6,29.86,SW,217,1.0,11.0,75,0.00,,,0.00,Wunderground v.1.15,2013-08-03 16:10:00,
2013-08-03 12:13:00,70.1,61.8,29.86,NW,320,4.0,11.0,75,0.00,,,0.00,Wunderground v.1.15,2013-08-03 16:13:00,
2013-08-03 12:14:00,70.2,61.9,29.86,West,264,3.0,11.0,75,0.00,,,0.00,Wunderground v.1.15,2013-08-03 16:14:00,
2013-08-03 12:15:00,70.4,62.1,29.86,WSW,238,5.0,6.0,75,0.00,,,0.00,Wunderground v.1.15,2013-08-03 16:15:00,
2013-08-03 12:18:00,70.4,61.7,29.86,WSW,254,3.0,13.0,74,0.00,,,0.00,Wunderground v.1.15,2013-08-03 16:18:00,
2013-08-03 12:19:00,70.5,61.8,29.85,ESE,109,1.0,13.0,74,0.00,,,0.00,Wunderground v.1.15,2013-08-03 16:19:00,
2013-08-03 12:21:00,70.6,61.9,29.85,South,183,2.0,13.0,74,0.00,,,0.00,Wunderground v.1.15,2013-08-03 16:21:00,
2013-08-03 12:23:00,70.8,62.5,29.85,SW,229,4.0,13.0,75,0.00,,,0.00,Wunderground v.1.15,2013-08-03 16:23:00,
2013-08-03 12:24:00,70.8,62.1,29.85,ENE,61,3.0,13.0,74,0.00,,,0.00,Wunderground v.1.15,2013-08-03 16:24:00,
2013-08-03 12:25:00,70.8,62.1,29.85,West,273,6.0,9.0,74,0.00,,,0.00,Wunderground v.1.15,2013-08-03 16:25:00,
2013-08-03 12:26:00,70.8,61.7,29.85,South,186,3.0,9.0,73,0.00,,,0.00,Wunderground v.1.15,2013-08-03 16:26:00,
2013-08-03 12:28:00,70.8,62.1,29.86,SW,222,8.0,9.0,74,0.00,,,0.00,Wunderground v.1.15,2013-08-03 16:28:00,
2013-08-03 12:29:00,70.7,61.6,29.85,South,191,2.0,9.0,73,0.00,,,0.00,Wunderground v.1.15,2013-08-03 16:29:00,
2013-08-03 12:30:00,70.7,61.6,29.85,SSW,192,3.0,9.0,73,0.00,,,0.00,Wunderground v.1.15,2013-08-03 16:30:00,
2013-08-03 12:31:00,70.8,61.7,29.85,South,172,5.0,9.0,73,0.00,,,0.00,Wunderground v.1.15,2013-08-03 16:31:00,
2013-08-03 12:32:00,70.8,61.7,29.85,WSW,249,3.0,9.0,73,0.00,,,0.00,Wunderground v.1.15,2013-08-03 16:32:00,
2013-08-03 12:33:00,70.8,61.7,29.85,WSW,242,6.0,9.0,73,0.00,,,0.00,Wunderground v.1.15,2013-08-03 16:33:00,
2013-08-03 12:34:00,70.8,61.7,29.86,SSW,196,7.0,9.0,73,0.00,,,0.00,Wunderground v.1.15,2013-08-03 16:34:00,
2013-08-03 12:35:00,70.7,61.2,29.85,West,259,3.0,8.0,72,0.00,,,0.00,Wunderground v.1.15,2013-08-03 16:35:00,
2013-08-03 12:37:00,70.7,61.6,29.85,West,267,3.0,8.0,73,0.00,,,0.00,Wunderground v.1.15,2013-08-03 16:37:00,
2013-08-03 12:38:00,70.8,62.1,29.85,WSW,248,4.0,8.0,74,0.00,,,0.00,Wunderground v.1.15,2013-08-03 16:38:00,
2013-08-03 12:40:00,70.8,61.7,29.85,SW,232,6.0,9.0,73,0.00,,,0.00,Wunderground v.1.15,2013-08-03 16:40:00,
2013-08-03 12:41:00,70.9,62.2,29.85,WSW,238,5.0,9.0,74,0.00,,,0.00,Wunderground v.1.15,2013-08-03 16:41:00,
2013-08-03 12:42:00,71.0,61.9,29.85,West,265,8.0,9.0,73,0.00,,,0.00,Wunderground v.1.15,2013-08-03 16:42:00,
2013-08-03 12:43:00,71.0,61.5,29.85,WNW,293,3.0,9.0,72,0.00,,,0.00,Wunderground v.1.15,2013-08-03 16:43:00,
2013-08-03 12:45:00,71.2,62.1,29.85,WSW,254,5.0,5.0,73,0.00,,,0.00,Wunderground v.1.15,2013-08-03 16:45:00,
2013-08-03 12:46:00,71.4,62.3,29.85,SSE,165,4.0,7.0,73,0.00,,,0.00,Wunderground v.1.15,2013-08-03 16:46:00,
2013-08-03 12:47:00,71.6,62.5,29.85,NNE,24,3.0,7.0,73,0.00,,,0.00,Wunderground v.1.15,2013-08-03 16:47:00,
2013-08-03 12:48:00,71.7,62.6,29.85,SW,217,6.0,11.0,73,0.00,,,0.00,Wunderground v.1.15,2013-08-03 16:48:00,
2013-08-03 12:50:00,71.8,61.5,29.85,South,179,8.0,11.0,70,0.00,,,0.00,Wunderground v.1.15,2013-08-03 16:50:00,
2013-08-03 12:52:00,71.7,61.8,29.85,SW,221,2.0,11.0,71,0.00,,,0.00,Wunderground v.1.15,2013-08-03 16:52:00,
2013-08-03 12:53:00,71.7,61.8,29.85,SW,225,4.0,11.0,71,0.00,,,0.00,Wunderground v.1.15,2013-08-03 16:53:00,
2013-08-03 12:55:00,71.8,61.9,29.85,WSW,257,3.0,6.0,71,0.00,,,0.00,Wunderground v.1.15,2013-08-03 16:55:00,
2013-08-03 12:57:00,72.0,62.1,29.85,West,269,10.0,10.0,71,0.00,,,0.00,Wunderground v.1.15,2013-08-03 16:57:00,
2013-08-03 12:58:00,72.0,62.1,29.85,West,275,7.0,10.0,71,0.00,,,0.00,Wunderground v.1.15,2013-08-03 16:58:00,
2013-08-03 12:59:00,72.1,61.8,29.85,NNW,336,2.0,10.0,70,0.00,,,0.00,Wunderground v.1.15,2013-08-03 16:59:00,
2013-08-03 13:00:00,72.2,61.9,29.85,SW,219,2.0,10.0,70,0.00,,,0.00,Wunderground v.1.15,2013-08-03 17:00:00,
2013-08-03 13:03:00,72.4,62.1,29.85,South,180,3.0,11.0,70,0.00,,,0.00,Wunderground v.1.15,2013-08-03 17:03:00,
2013-08-03 13:04:00,72.6,62.7,29.85,South,188,2.0,11.0,71,0.00,,,0.00,Wunderground v.1.15,2013-08-03 17:04:00,
2013-08-03 13:05:00,72.9,62.5,29.85,South,175,6.0,9.0,70,0.00,,,0.00,Wunderground v.1.15,2013-08-03 17:05:00,
2013-08-03 13:08:00,73.0,62.6,29.85,NW,324,4.0,10.0,70,0.00,,,0.00,Wunderground v.1.15,2013-08-03 17:08:00,
2013-08-03 13:09:00,73.1,62.3,29.85,NNW,340,1.0,10.0,69,0.00,,,0.00,Wunderground v.1.15,2013-08-03 17:09:00,
2013-08-03 13:10:00,73.2,62.4,29.85,SW,226,7.0,10.0,69,0.00,,,0.00,Wunderground v.1.15,2013-08-03 17:10:00,
2013-08-03 13:13:00,73.1,61.9,29.85,SSW,197,3.0,10.0,68,0.00,,,0.00,Wunderground v.1.15,2013-08-03 17:13:00,
2013-08-03 13:14:00,73.0,61.8,29.85,WSW,257,5.0,10.0,68,0.00,,,0.00,Wunderground v.1.15,2013-08-03 17:14:00,
2013-08-03 13:15:00,72.7,61.9,29.85,NW,310,4.0,8.0,69,0.00,,,0.00,Wunderground v.1.15,2013-08-03 17:15:00,
2013-08-03 13:18:00,72.6,62.3,29.85,West,260,6.0,9.0,70,0.00,,,0.00,Wunderground v.1.15,2013-08-03 17:18:00,
2013-08-03 13:19:00,72.4,62.5,29.85,West,267,4.0,10.0,71,0.00,,,0.00,Wunderground v.1.15,2013-08-03 17:19:00,
2013-08-03 13:20:00,72.4,62.5,29.85,West,263,8.0,10.0,71,0.00,,,0.00,Wunderground v.1.15,2013-08-03 17:20:00,
2013-08-03 13:21:00,72.3,61.6,29.85,WNW,295,0.0,10.0,69,0.00,,,0.00,Wunderground v.1.15,2013-08-03 17:21:00,
2013-08-03 13:23:00,72.3,62.0,29.85,South,181,2.0,10.0,70,0.00,,,0.00,Wunderground v.1.15,2013-08-03 17:23:00,
2013-08-03 13:25:00,72.4,62.5,29.85,NW,306,3.0,4.0,71,0.00,,,0.00,Wunderground v.1.15,2013-08-03 17:25:00,
2013-08-03 13:27:00,72.5,62.6,29.85,WNW,282,2.0,6.0,71,0.00,,,0.00,Wunderground v.1.15,2013-08-03 17:27:00,
2013-08-03 13:28:00,72.6,62.7,29.85,SSE,153,0.0,6.0,71,0.00,,,0.00,Wunderground v.1.15,2013-08-03 17:28:00,
2013-08-03 13:30:00,72.7,63.1,29.85,SSE,153,2.0,6.0,72,0.00,,,0.00,Wunderground v.1.15,2013-08-03 17:30:00,
2013-08-03 13:32:00,72.9,62.5,29.85,SSW,205,5.0,6.0,70,0.00,,,0.00,Wunderground v.1.15,2013-08-03 17:32:00,
2013-08-03 13:34:00,72.8,62.4,29.85,WSW,240,5.0,9.0,70,0.00,,,0.00,Wunderground v.1.15,2013-08-03 17:34:00,
2013-08-03 13:35:00,72.8,62.4,29.85,WSW,239,2.0,3.0,70,0.00,,,0.00,Wunderground v.1.15,2013-08-03 17:35:00,
2013-08-03 13:37:00,73.0,63.0,29.85,WNW,300,2.0,4.0,71,0.00,,,0.00,Wunderground v.1.15,2013-08-03 17:37:00,
2013-08-03 13:39:00,73.2,62.8,29.85,WNW,283,7.0,8.0,70,0.00,,,0.00,Wunderground v.1.15,2013-08-03 17:39:00,
2013-08-03 13:40:00,73.2,62.4,29.85,WNW,293,4.0,8.0,69,0.00,,,0.00,Wunderground v.1.15,2013-08-03 17:40:00,
2013-08-03 13:43:00,73.0,61.8,29.85,West,271,7.0,11.0,68,0.00,,,0.00,Wunderground v.1.15,2013-08-03 17:43:00,
2013-08-03 13:44:00,72.8,62.4,29.85,SSE,156,6.0,12.0,70,0.00,,,0.00,Wunderground v.1.15,2013-08-03 17:44:00,
2013-08-03 13:45:00,72.8,62.4,29.85,WNW,298,4.0,10.0,70,0.00,,,0.00,Wunderground v.1.15,2013-08-03 17:45:00,
2013-08-03 13:48:00,72.7,61.9,29.85,SW,221,7.0,14.0,69,0.00,,,0.00,Wunderground v.1.15,2013-08-03 17:48:00,
2013-08-03 13:50:00,72.6,61.4,29.85,NNW,330,3.0,14.0,68,0.00,,,0.00,Wunderground v.1.15,2013-08-03 17:50:00,
2013-08-03 13:53:00,72.7,62.3,29.85,NW,317,3.0,14.0,70,0.00,,,0.00,Wunderground v.1.15,2013-08-03 17:53:00,
2013-08-03 13:55:00,72.7,61.5,29.85,WSW,241,1.0,5.0,68,0.00,,,0.00,Wunderground v.1.15,2013-08-03 17:55:00,
2013-08-03 13:56:00,72.7,61.5,29.85,NW,309,2.0,7.0,68,0.00,,,0.00,Wunderground v.1.15,2013-08-03 17:56:00,
2013-08-03 13:58:00,72.6,61.4,29.85,South,169,7.0,8.0,68,0.00,,,0.00,Wunderground v.1.15,2013-08-03 17:58:00,
2013-08-03 14:00:00,72.6,61.8,29.85,West,263,2.0,8.0,69,0.00,,,0.00,Wunderground v.1.15,2013-08-03 18:00:00,
2013-08-03 14:01:00,72.6,62.3,29.85,WSW,248,0.0,8.0,70,0.00,,,0.00,Wunderground v.1.15,2013-08-03 18:01:00,
2013-08-03 14:02:00,72.7,62.3,29.85,WSW,238,6.0,8.0,70,0.00,,,0.00,Wunderground v.1.15,2013-08-03 18:02:00,
2013-08-03 14:03:00,72.7,61.9,29.85,WSW,244,1.0,10.0,69,0.00,,,0.00,Wunderground v.1.15,2013-08-03 18:03:00,
2013-08-03 14:05:00,72.9,62.1,29.85,WNW,301,5.0,5.0,69,0.00,,,0.00,Wunderground v.1.15,2013-08-03 18:05:00,
2013-08-03 14:06:00,72.9,62.1,29.85,WNW,303,3.0,7.0,69,0.00,,,0.00,Wunderground v.1.15,2013-08-03 18:06:00,
2013-08-03 14:07:00,72.9,62.1,29.85,West,261,1.0,7.0,69,0.00,,,0.00,Wunderground v.1.15,2013-08-03 18:07:00,
2013-08-03 14:08:00,73.0,62.6,29.85,West,271,0.0,7.0,70,0.00,,,0.00,Wunderground v.1.15,2013-08-03 18:08:00,
2013-08-03 14:10:00,73.0,62.2,29.85,South,184,4.0,7.0,69,0.00,,,0.00,Wunderground v.1.15,2013-08-03 18:10:00,
2013-08-03 14:11:00,73.0,62.6,29.85,SW,228,5.0,7.0,70,0.00,,,0.00,Wunderground v.1.15,2013-08-03 18:11:00,
2013-08-03 14:12:00,72.9,62.5,29.85,SW,217,6.0,7.0,70,0.00,,,0.00,Wunderground v.1.15,2013-08-03 18:12:00,
2013-08-03 14:14:00,72.8,62.8,29.85,NW,323,4.0,7.0,71,0.00,,,0.00,Wunderground v.1.15,2013-08-03 18:14:00,
2013-08-03 14:15:00,72.8,62.4,29.85,SW,225,3.0,4.0,70,0.00,,,0.00,Wunderground v.1.15,2013-08-03 18:15:00,
2013-08-03 14:16:00,72.8,62.0,29.85,SW,223,5.0,5.0,69,0.00,,,0.00,Wunderground v.1.15,2013-08-03 18:16:00,
2013-08-03 14:17:00,72.8,62.4,29.85,WSW,248,2.0,5.0,70,0.00,,,0.00,Wunderground v.1.15,2013-08-03 18:17:00,
2013-08-03 14:19:00,72.7,62.3,29.85,SSW,210,3.0,11.0,70,0.00,,,0.00,Wunderground v.1.15,2013-08-03 18:19:00,
2013-08-03 14:20:00,72.7,61.9,29.85,SW,227,3.0,11.0,69,0.00,,,0.00,Wunderground v.1.15,2013-08-03 18:20:00,
2013-08-03 14:21:00,72.7,61.9,29.85,SSW,205,3.0,11.0,69,0.00,,,0.00,Wunderground v.1.15,2013-08-03 18:21:00,
2013-08-03 14:22:00,72.8,62.4,29.85,SW,234,2.0,11.0,70,0.00,,,0.00,Wunderground v.1.15,2013-08-03 18:22:00,
2013-08-03 14:24:00,73.0,62.2,29.85,SSW,209,7.0,11.0,69,0.00,,,0.00,Wunderground v.1.15,2013-08-03 18:24:00,
2013-08-03 14:26:00,73.1,62.3,29.85,SW,221,1.0,4.0,69,0.00,,,0.00,Wunderground v.1.15,2013-08-03 18:26:00,
2013-08-03 14:27:00,73.4,63.0,29.85,NW,304,1.0,4.0,70,0.00,,,0.00,Wunderground v.1.15,2013-08-03 18:27:00,
2013-08-03 14:30:00,73.8,63.0,29.85,South,187,1.0,7.0,69,0.00,,,0.00,Wunderground v.1.15,2013-08-03 18:30:00,
2013-08-03 14:31:00,74.0,63.2,29.85,SW,231,3.0,8.0,69,0.00,,,0.00,Wunderground v.1.15,2013-08-03 18:31:00,
2013-08-03 14:32:00,74.0,62.8,29.85,SW,229,4.0,8.0,68,0.00,,,0.00,Wunderground v.1.15,2013-08-03 18:32:00,
2013-08-03 14:33:00,74.1,62.9,29.85,SW,236,2.0,8.0,68,0.00,,,0.00,Wunderground v.1.15,2013-08-03 18:33:00,
2013-08-03 14:35:00,74.3,62.6,29.84,WNW,290,2.0,6.0,67,0.00,,,0.00,Wunderground v.1.15,2013-08-03 18:35:00,
2013-08-03 14:37:00,74.4,62.7,29.84,SSW,210,6.0,8.0,67,0.00,,,0.00,Wunderground v.1.15,2013-08-03 18:37:00,
2013-08-03 14:38:00,74.3,63.1,29.84,WSW,240,3.0,8.0,68,0.00,,,0.00,Wunderground v.1.15,2013-08-03 18:38:00,
2013-08-03 14:40:00,74.4,64.0,29.84,WSW,250,1.0,8.0,70,0.00,,,0.00,Wunderground v.1.15,2013-08-03 18:40:00,
2013-08-03 14:42:00,74.7,63.9,29.84,South,180,9.0,9.0,69,0.00,,,0.00,Wunderground v.1.15,2013-08-03 18:42:00,
2013-08-03 14:43:00,74.9,63.2,29.84,WSW,242,6.0,9.0,67,0.00,,,0.00,Wunderground v.1.15,2013-08-03 18:43:00,
2013-08-03 14:45:00,74.8,62.2,29.85,SSW,207,13.0,13.0,65,0.00,,,0.00,Wunderground v.1.15,2013-08-03 18:45:00,
2013-08-03 14:47:00,74.5,62.0,29.84,South,169,2.0,13.0,65,0.00,,,0.00,Wunderground v.1.15,2013-08-03 18:47:00,
2013-08-03 14:48:00,74.5,62.0,29.84,WSW,254,2.0,13.0,65,0.00,,,0.00,Wunderground v.1.15,2013-08-03 18:48:00,
2013-08-03 14:51:00,74.2,61.7,29.84,WSW,257,7.0,13.0,65,0.00,,,0.00,Wunderground v.1.15,2013-08-03 18:51:00,
2013-08-03 14:53:00,74.0,62.3,29.84,SW,235,2.0,13.0,67,0.00,,,0.00,Wunderground v.1.15,2013-08-03 18:53:00,
2013-08-03 14:54:00,74.0,62.3,29.84,WSW,246,3.0,13.0,67,0.00,,,0.00,Wunderground v.1.15,2013-08-03 18:54:00,
2013-08-03 14:58:00,73.8,62.6,29.84,East,98,2.0,6.0,68,0.00,,,0.00,Wunderground v.1.15,2013-08-03 18:58:00,
2013-08-03 14:59:00,73.8,62.6,29.84,SSW,202,2.0,6.0,68,0.00,,,0.00,Wunderground v.1.15,2013-08-03 18:59:00,
2013-08-03 15:03:00,73.9,63.1,29.84,NW,309,3.0,6.0,69,0.00,,,0.00,Wunderground v.1.15,2013-08-03 19:03:00,
2013-08-03 15:04:00,73.8,62.6,29.84,North,360,2.0,8.0,68,0.00,,,0.00,Wunderground v.1.15,2013-08-03 19:04:00,
2013-08-03 15:08:00,73.9,62.7,29.84,SW,235,5.0,9.0,68,0.00,,,0.00,Wunderground v.1.15,2013-08-03 19:08:00,
2013-08-03 15:09:00,74.0,62.8,29.84,WNW,284,4.0,9.0,68,0.00,,,0.00,Wunderground v.1.15,2013-08-03 19:09:00,
2013-08-03 15:13:00,74.0,61.0,29.84,WSW,247,4.0,12.0,64,0.00,,,0.00,Wunderground v.1.15,2013-08-03 19:13:00,
2013-08-03 15:14:00,74.0,61.9,29.83,SSW,202,3.0,12.0,66,0.00,,,0.00,Wunderground v.1.15,2013-08-03 19:14:00,
2013-08-03 15:18:00,74.2,62.5,29.83,WSW,250,7.0,9.0,67,0.00,,,0.00,Wunderground v.1.15,2013-08-03 19:18:00,
2013-08-03 15:19:00,74.1,62.4,29.83,WSW,244,10.0,10.0,67,0.00,,,0.00,Wunderground v.1.15,2013-08-03 19:19:00,
2013-08-03 15:23:00,73.8,60.9,29.83,WSW,237,4.0,12.0,64,0.00,,,0.00,Wunderground v.1.15,2013-08-03 19:23:00,
2013-08-03 15:24:00,73.8,60.9,29.83,WSW,256,4.0,12.0,64,0.00,,,0.00,Wunderground v.1.15,2013-08-03 19:24:00,
2013-08-03 15:28:00,74.2,62.1,29.83,SSW,200,1.0,4.0,66,0.00,,,0.00,Wunderground v.1.15,2013-08-03 19:28:00,
2013-08-03 15:29:00,74.2,62.1,29.83,SSW,200,1.0,4.0,66,0.00,,,0.00,Wunderground v.1.15,2013-08-03 19:29:00,
2013-08-03 15:30:00,74.5,62.4,29.83,SSW,192,3.0,4.0,66,0.00,,,0.00,Wunderground v.1.15,2013-08-03 19:30:00,
2013-08-03 15:34:00,74.6,61.2,29.83,SSW,193,2.0,8.0,63,0.00,,,0.00,Wunderground v.1.15,2013-08-03 19:34:00,
2013-08-03 15:35:00,74.7,61.3,29.83,South,180,3.0,4.0,63,0.00,,,0.00,Wunderground v.1.15,2013-08-03 19:35:00,
2013-08-03 15:39:00,75.1,60.7,29.83,South,177,6.0,8.0,61,0.00,,,0.00,Wunderground v.1.15,2013-08-03 19:39:00,
2013-08-03 15:41:00,75.4,61.9,29.83,NW,309,7.0,8.0,63,0.00,,,0.00,Wunderground v.1.15,2013-08-03 19:41:00,
2013-08-03 15:44:00,75.3,60.5,29.83,North,355,3.0,12.0,60,0.00,,,0.00,Wunderground v.1.15,2013-08-03 19:44:00,
2013-08-03 15:45:00,75.3,60.9,29.83,North,355,1.0,12.0,61,0.00,,,0.00,Wunderground v.1.15,2013-08-03 19:45:00,
2013-08-03 15:47:00,75.0,61.5,29.83,SSW,202,0.0,8.0,63,0.00,,,0.00,Wunderground v.1.15,2013-08-03 19:47:00,
2013-08-03 15:49:00,74.9,61.5,29.82,WNW,283,8.0,9.0,63,0.00,,,0.00,Wunderground v.1.15,2013-08-03 19:49:00,
2013-08-03 15:50:00,74.9,61.0,29.82,WNW,288,5.0,9.0,62,0.00,,,0.00,Wunderground v.1.15,2013-08-03 19:50:00,
2013-08-03 15:53:00,74.8,61.4,29.82,West,265,0.0,9.0,63,0.00,,,0.00,Wunderground v.1.15,2013-08-03 19:53:00,
2013-08-03 15:54:00,74.8,61.8,29.82,West,261,3.0,9.0,64,0.00,,,0.00,Wunderground v.1.15,2013-08-03 19:54:00,
2013-08-03 15:55:00,74.8,61.4,29.82,SW,232,4.0,4.0,63,0.00,,,0.00,Wunderground v.1.15,2013-08-03 19:55:00,
2013-08-03 15:58:00,74.5,61.5,29.82,SW,236,1.0,8.0,64,0.00,,,0.00,Wunderground v.1.15,2013-08-03 19:58:00,
2013-08-03 15:59:00,74.6,61.6,29.82,WSW,243,1.0,8.0,64,0.00,,,0.00,Wunderground v.1.15,2013-08-03 19:59:00,
2013-08-03 16:00:00,74.7,62.1,29.82,WSW,243,1.0,8.0,65,0.00,,,0.00,Wunderground v.1.15,2013-08-03 20:00:00,
2013-08-03 16:03:00,75.2,62.6,29.82,SW,232,2.0,8.0,65,0.00,,,0.00,Wunderground v.1.15,2013-08-03 20:03:00,
2013-08-03 16:04:00,75.5,62.0,29.82,WNW,290,2.0,8.0,63,0.00,,,0.00,Wunderground v.1.15,2013-08-03 20:04:00,
2013-08-03 16:05:00,75.5,62.0,29.82,WSW,254,3.0,4.0,63,0.00,,,0.00,Wunderground v.1.15,2013-08-03 20:05:00,
2013-08-03 16:08:00,75.7,62.2,29.82,WSW,254,5.0,8.0,63,0.00,,,0.00,Wunderground v.1.15,2013-08-03 20:08:00,
2013-08-03 16:10:00,75.6,62.1,29.82,SW,236,0.0,8.0,63,0.00,,,0.00,Wunderground v.1.15,2013-08-03 20:10:00,
2013-08-03 16:13:00,75.9,62.8,29.82,SW,219,4.0,8.0,64,0.00,,,0.00,Wunderground v.1.15,2013-08-03 20:13:00,
2013-08-03 16:15:00,76.0,62.0,29.82,West,278,3.0,3.0,62,0.00,,,0.00,Wunderground v.1.15,2013-08-03 20:15:00,
2013-08-03 16:16:00,76.1,62.1,29.82,SSW,212,7.0,7.0,62,0.00,,,0.00,Wunderground v.1.15,2013-08-03 20:16:00,
2013-08-03 16:19:00,76.1,61.7,29.82,WSW,252,2.0,9.0,61,0.00,,,0.00,Wunderground v.1.15,2013-08-03 20:19:00,
2013-08-03 16:20:00,76.1,61.7,29.82,SW,232,2.0,9.0,61,0.00,,,0.00,Wunderground v.1.15,2013-08-03 20:20:00,
2013-08-03 16:21:00,76.1,61.7,29.82,SW,232,1.0,9.0,61,0.00,,,0.00,Wunderground v.1.15,2013-08-03 20:21:00,
2013-08-03 16:24:00,76.0,61.6,29.82,SW,232,1.0,9.0,61,0.00,,,0.00,Wunderground v.1.15,2013-08-03 20:24:00,
2013-08-03 16:25:00,76.1,61.7,29.82,South,189,2.0,5.0,61,0.00,,,0.00,Wunderground v.1.15,2013-08-03 20:25:00,
2013-08-03 16:26:00,76.2,61.8,29.82,SSW,213,2.0,5.0,61,0.00,,,0.00,Wunderground v.1.15,2013-08-03 20:26:00,
2013-08-03 16:29:00,76.3,61.9,29.82,SSW,204,5.0,10.0,61,0.00,,,0.00,Wunderground v.1.15,2013-08-03 20:29:00,
2013-08-03 16:31:00,76.2,61.3,29.82,SSW,211,4.0,10.0,60,0.00,,,0.00,Wunderground v.1.15,2013-08-03 20:31:00,
2013-08-03 16:32:00,76.1,61.7,29.82,SW,233,3.0,10.0,61,0.00,,,0.00,Wunderground v.1.15,2013-08-03 20:32:00,
2013-08-03 16:34:00,76.0,62.0,29.82,South,182,2.0,4.0,62,0.00,,,0.00,Wunderground v.1.15,2013-08-03 20:34:00,
2013-08-03 16:36:00,76.0,61.6,29.82,SSW,206,2.0,7.0,61,0.00,,,0.00,Wunderground v.1.15,2013-08-03 20:36:00,
2013-08-03 16:37:00,76.1,61.2,29.82,SSW,211,1.0,7.0,60,0.00,,,0.00,Wunderground v.1.15,2013-08-03 20:37:00,
2013-08-03 16:40:00,76.0,60.6,29.82,WSW,240,3.0,9.0,59,0.00,,,0.00,Wunderground v.1.15,2013-08-03 20:40:00,
2013-08-03 16:41:00,76.0,61.1,29.82,SW,234,1.0,9.0,60,0.00,,,0.00,Wunderground v.1.15,2013-08-03 20:41:00,
2013-08-03 16:42:00,76.1,61.2,29.82,SSW,205,5.0,9.0,60,0.00,,,0.00,Wunderground v.1.15,2013-08-03 20:42:00,
2013-08-03 16:45:00,75.7,60.8,29.82,WSW,252,2.0,4.0,60,0.00,,,0.00,Wunderground v.1.15,2013-08-03 20:45:00,
2013-08-03 16:46:00,75.7,60.8,29.82,WNW,285,1.0,4.0,60,0.00,,,0.00,Wunderground v.1.15,2013-08-03 20:46:00,
2013-08-03 16:47:00,75.8,61.4,29.82,WNW,296,5.0,9.0,61,0.00,,,0.00,Wunderground v.1.15,2013-08-03 20:47:00,
2013-08-03 16:50:00,76.0,61.6,29.82,SSW,198,4.0,9.0,61,0.00,,,0.00,Wunderground v.1.15,2013-08-03 20:50:00,
2013-08-03 16:51:00,76.1,61.7,29.82,SSW,202,4.0,9.0,61,0.00,,,0.00,Wunderground v.1.15,2013-08-03 20:51:00,
2013-08-03 16:52:00,76.1,61.7,29.81,WSW,252,5.0,9.0,61,0.00,,,0.00,Wunderground v.1.15,2013-08-03 20:52:00,
2013-08-03 16:56:00,75.7,61.3,29.82,SSW,199,2.0,5.0,61,0.00,,,0.00,Wunderground v.1.15,2013-08-03 20:56:00,
2013-08-03 16:57:00,75.7,61.3,29.82,WSW,239,2.0,8.0,61,0.00,,,0.00,Wunderground v.1.15,2013-08-03 20:57:00,
2013-08-03 16:58:00,75.7,61.3,29.82,WSW,239,2.0,8.0,61,0.00,,,0.00,Wunderground v.1.15,2013-08-03 20:58:00,
2013-08-03 17:01:00,75.8,61.8,29.82,SW,234,5.0,8.0,62,0.00,,,0.00,Wunderground v.1.15,2013-08-03 21:01:00,
2013-08-03 17:02:00,75.8,61.8,29.82,South,180,2.0,10.0,62,0.00,,,0.00,Wunderground v.1.15,2013-08-03 21:02:00,
2013-08-03 17:03:00,75.9,61.9,29.82,WSW,243,4.0,10.0,62,0.00,,,0.00,Wunderground v.1.15,2013-08-03 21:03:00,
2013-08-03 17:07:00,75.7,61.8,29.82,South,185,5.0,8.0,62,0.00,,,0.00,Wunderground v.1.15,2013-08-03 21:07:00,
2013-08-03 17:08:00,75.7,61.3,29.82,South,184,5.0,8.0,61,0.00,,,0.00,Wunderground v.1.15,2013-08-03 21:08:00,
2013-08-03 17:12:00,75.5,61.6,29.82,WSW,239,1.0,8.0,62,0.00,,,0.00,Wunderground v.1.15,2013-08-03 21:12:00,
2013-08-03 17:13:00,75.4,61.9,29.82,SSW,213,6.0,8.0,63,0.00,,,0.00,Wunderground v.1.15,2013-08-03 21:13:00,
2013-08-03 17:17:00,75.3,62.3,29.82,SSW,212,2.0,7.0,64,0.00,,,0.00,Wunderground v.1.15,2013-08-03 21:17:00,
2013-08-03 17:18:00,75.3,61.8,29.81,South,173,0.0,7.0,63,0.00,,,0.00,Wunderground v.1.15,2013-08-03 21:18:00,
2013-08-03 17:19:00,75.3,61.8,29.81,South,173,0.0,7.0,63,0.00,,,0.00,Wunderground v.1.15,2013-08-03 21:19:00,
2013-08-03 17:22:00,75.8,62.3,29.81,WSW,257,3.0,7.0,63,0.00,,,0.00,Wunderground v.1.15,2013-08-03 21:22:00,
2013-08-03 17:24:00,75.7,62.2,29.81,WSW,257,1.0,7.0,63,0.00,,,0.00,Wunderground v.1.15,2013-08-03 21:24:00,
2013-08-03 17:28:00,75.6,62.1,29.81,South,183,5.0,5.0,63,0.00,,,0.00,Wunderground v.1.15,2013-08-03 21:28:00,
2013-08-03 17:29:00,75.5,62.0,29.81,SW,217,2.0,9.0,63,0.00,,,0.00,Wunderground v.1.15,2013-08-03 21:29:00,
2013-08-03 17:33:00,75.8,62.8,29.82,NW,313,3.0,9.0,64,0.00,,,0.00,Wunderground v.1.15,2013-08-03 21:33:00,
2013-08-03 17:34:00,75.8,62.8,29.82,NW,307,0.0,9.0,64,0.00,,,0.00,Wunderground v.1.15,2013-08-03 21:34:00,
2013-08-03 17:35:00,75.9,63.7,29.82,SSW,202,3.0,9.0,66,0.00,,,0.00,Wunderground v.1.15,2013-08-03 21:35:00,
2013-08-03 17:38:00,75.5,62.5,29.82,SSW,200,3.0,7.0,64,0.00,,,0.00,Wunderground v.1.15,2013-08-03 21:38:00,
2013-08-03 17:39:00,75.3,62.7,29.82,SW,235,3.0,7.0,65,0.00,,,0.00,Wunderground v.1.15,2013-08-03 21:39:00,
2013-08-03 17:40:00,75.2,63.1,29.82,South,183,2.0,7.0,66,0.00,,,0.00,Wunderground v.1.15,2013-08-03 21:40:00,
2013-08-03 17:43:00,74.8,62.7,29.82,South,191,5.0,7.0,66,0.00,,,0.00,Wunderground v.1.15,2013-08-03 21:43:00,
2013-08-03 17:44:00,74.8,63.1,29.82,SW,229,2.0,7.0,67,0.00,,,0.00,Wunderground v.1.15,2013-08-03 21:44:00,
2013-08-03 17:45:00,74.7,63.0,29.82,SSW,213,4.0,5.0,67,0.00,,,0.00,Wunderground v.1.15,2013-08-03 21:45:00,
2013-08-03 17:48:00,74.8,63.5,29.82,SSW,209,0.0,7.0,68,0.00,,,0.00,Wunderground v.1.15,2013-08-03 21:48:00,
2013-08-03 17:49:00,74.8,63.5,29.82,South,181,2.0,7.0,68,0.00,,,0.00,Wunderground v.1.15,2013-08-03 21:49:00,
2013-08-03 17:50:00,74.9,63.6,29.82,South,186,2.0,7.0,68,0.00,,,0.00,Wunderground v.1.15,2013-08-03 21:50:00,
2013-08-03 17:54:00,75.2,63.5,29.81,SSW,198,2.0,7.0,67,0.00,,,0.00,Wunderground v.1.15,2013-08-03 21:54:00,
2013-08-03 17:55:00,75.3,64.0,29.81,SW,229,5.0,5.0,68,0.00,,,0.00,Wunderground v.1.15,2013-08-03 21:55:00,
2013-08-03 17:57:00,75.3,63.6,29.82,SW,231,4.0,5.0,67,0.00,,,0.00,Wunderground v.1.15,2013-08-03 21:57:00,
2013-08-03 17:59:00,75.2,63.1,29.82,SSW,209,3.0,8.0,66,0.00,,,0.00,Wunderground v.1.15,2013-08-03 21:59:00,
2013-08-03 18:00:00,75.0,63.3,29.82,SSW,198,2.0,8.0,67,0.00,,,0.00,Wunderground v.1.15,2013-08-03 22:00:00,
2013-08-03 18:03:00,74.8,63.5,29.82,SSW,208,1.0,8.0,68,0.00,,,0.00,Wunderground v.1.15,2013-08-03 22:03:00,
2013-08-03 18:04:00,74.8,63.5,29.82,SW,215,3.0,8.0,68,0.00,,,0.00,Wunderground v.1.15,2013-08-03 22:04:00,
2013-08-03 18:05:00,74.7,63.9,29.82,SW,215,1.0,3.0,69,0.00,,,0.00,Wunderground v.1.15,2013-08-03 22:05:00,
2013-08-03 18:09:00,74.7,64.3,29.82,SSW,196,5.0,5.0,70,0.00,,,0.00,Wunderground v.1.15,2013-08-03 22:09:00,
2013-08-03 18:10:00,74.6,63.8,29.82,SW,219,4.0,8.0,69,0.00,,,0.00,Wunderground v.1.15,2013-08-03 22:10:00,
2013-08-03 18:11:00,74.5,64.1,29.82,SSW,198,3.0,8.0,70,0.00,,,0.00,Wunderground v.1.15,2013-08-03 22:11:00,
2013-08-03 18:14:00,74.1,63.7,29.82,South,189,3.0,8.0,70,0.00,,,0.00,Wunderground v.1.15,2013-08-03 22:14:00,
2013-08-03 18:15:00,74.1,63.7,29.81,SSW,198,2.0,3.0,70,0.00,,,0.00,Wunderground v.1.15,2013-08-03 22:15:00,
2013-08-03 18:16:00,74.0,63.6,29.81,SW,234,1.0,5.0,70,0.00,,,0.00,Wunderground v.1.15,2013-08-03 22:16:00,
2013-08-03 18:19:00,74.0,64.0,29.82,SSW,207,2.0,5.0,71,0.00,,,0.00,Wunderground v.1.15,2013-08-03 22:19:00,
2013-08-03 18:20:00,74.0,64.0,29.82,South,180,3.0,5.0,71,0.00,,,0.00,Wunderground v.1.15,2013-08-03 22:20:00,
2013-08-03 18:21:00,74.0,64.4,29.81,South,180,1.0,5.0,72,0.00,,,0.00,Wunderground v.1.15,2013-08-03 22:21:00,
2013-08-03 18:24:00,73.9,63.9,29.81,South,183,2.0,5.0,71,0.00,,,0.00,Wunderground v.1.15,2013-08-03 22:24:00,
2013-08-03 18:25:00,73.9,63.9,29.81,South,184,1.0,1.0,71,0.00,,,0.00,Wunderground v.1.15,2013-08-03 22:25:00,
2013-08-03 18:26:00,73.8,63.8,29.82,South,184,1.0,1.0,71,0.00,,,0.00,Wunderground v.1.15,2013-08-03 22:26:00,
2013-08-03 18:27:00,73.8,63.8,29.82,South,184,2.0,2.0,71,0.00,,,0.00,Wunderground v.1.15,2013-08-03 22:27:00,
2013-08-03 18:29:00,73.7,64.1,29.82,South,184,1.0,3.0,72,0.00,,,0.00,Wunderground v.1.15,2013-08-03 22:29:00,
2013-08-03 18:30:00,73.7,64.1,29.82,South,184,1.0,3.0,72,0.00,,,0.00,Wunderground v.1.15,2013-08-03 22:30:00,
2013-08-03 18:32:00,73.7,64.5,29.82,South,184,1.0,3.0,73,0.00,,,0.00,Wunderground v.1.15,2013-08-03 22:32:00,
2013-08-03 18:34:00,73.6,64.0,29.82,SSW,198,2.0,4.0,72,0.00,,,0.00,Wunderground v.1.15,2013-08-03 22:34:00,
2013-08-03 18:35:00,73.6,64.4,29.82,SSW,205,2.0,4.0,73,0.00,,,0.00,Wunderground v.1.15,2013-08-03 22:35:00,
2013-08-03 18:37:00,73.3,64.1,29.82,SSW,207,4.0,6.0,73,0.00,,,0.00,Wunderground v.1.15,2013-08-03 22:37:00,
2013-08-03 18:39:00,73.1,63.9,29.82,SSE,164,2.0,7.0,73,0.00,,,0.00,Wunderground v.1.15,2013-08-03 22:39:00,
2013-08-03 18:40:00,73.1,63.9,29.82,South,186,2.0,7.0,73,0.00,,,0.00,Wunderground v.1.15,2013-08-03 22:40:00,
2013-08-03 18:42:00,72.9,64.1,29.82,SW,223,0.0,7.0,74,0.00,,,0.00,Wunderground v.1.15,2013-08-03 22:42:00,
2013-08-03 18:44:00,72.9,64.1,29.82,SW,228,2.0,7.0,74,0.00,,,0.00,Wunderground v.1.15,2013-08-03 22:44:00,
2013-08-03 18:45:00,72.9,64.1,29.82,SSW,202,5.0,7.0,74,0.00,,,0.00,Wunderground v.1.15,2013-08-03 22:45:00,
2013-08-03 18:47:00,72.8,64.0,29.82,SSW,196,2.0,8.0,74,0.00,,,0.00,Wunderground v.1.15,2013-08-03 22:47:00,
2013-08-03 18:48:00,72.8,64.0,29.82,SSW,196,1.0,8.0,74,0.00,,,0.00,Wunderground v.1.15,2013-08-03 22:48:00,
2013-08-03 18:50:00,72.7,63.9,29.82,SSW,196,1.0,8.0,74,0.00,,,0.00,Wunderground v.1.15,2013-08-03 22:50:00,
2013-08-03 18:52:00,72.6,63.8,29.82,SSW,207,0.0,8.0,74,0.00,,,0.00,Wunderground v.1.15,2013-08-03 22:52:00,
2013-08-03 18:53:00,72.5,64.1,29.82,SSW,207,0.0,8.0,75,0.00,,,0.00,Wunderground v.1.15,2013-08-03 22:53:00,
2013-08-03 18:55:00,72.5,64.1,29.82,SSW,211,0.0,2.0,75,0.00,,,0.00,Wunderground v.1.15,2013-08-03 22:55:00,
2013-08-03 18:57:00,72.4,64.0,29.82,West,261,11.0,11.0,75,0.00,,,0.00,Wunderground v.1.15,2013-08-03 22:57:00,
2013-08-03 18:58:00,72.4,64.0,29.82,SSW,213,6.0,11.0,75,0.00,,,0.00,Wunderground v.1.15,2013-08-03 22:58:00,
2013-08-03 19:00:00,72.2,63.8,29.83,South,182,2.0,11.0,75,0.00,,,0.00,Wunderground v.1.15,2013-08-03 23:00:00,
2013-08-03 19:02:00,72.3,64.3,29.83,SW,219,2.0,11.0,76,0.00,,,0.00,Wunderground v.1.15,2013-08-03 23:02:00,
2013-08-03 19:03:00,72.4,64.4,29.83,SW,219,0.0,11.0,76,0.00,,,0.00,Wunderground v.1.15,2013-08-03 23:03:00,
2013-08-03 19:05:00,72.5,64.1,29.82,SW,233,4.0,4.0,75,0.00,,,0.00,Wunderground v.1.15,2013-08-03 23:05:00,
2013-08-03 19:06:00,72.5,64.1,29.82,South,182,2.0,4.0,75,0.00,,,0.00,Wunderground v.1.15,2013-08-03 23:06:00,
2013-08-03 19:07:00,72.6,64.6,29.83,SSW,192,2.0,4.0,76,0.00,,,0.00,Wunderground v.1.15,2013-08-03 23:07:00,
2013-08-03 19:08:00,72.7,64.3,29.82,SW,227,3.0,4.0,75,0.00,,,0.00,Wunderground v.1.15,2013-08-03 23:08:00,
2013-08-03 19:09:00,72.7,64.3,29.82,West,260,2.0,4.0,75,0.00,,,0.00,Wunderground v.1.15,2013-08-03 23:09:00,
2013-08-03 19:10:00,72.7,64.3,29.82,SW,228,3.0,5.0,75,0.00,,,0.00,Wunderground v.1.15,2013-08-03 23:10:00,
2013-08-03 19:11:00,72.7,64.3,29.82,SW,228,3.0,5.0,75,0.00,,,0.00,Wunderground v.1.15,2013-08-03 23:11:00,
2013-08-03 19:13:00,72.6,64.6,29.82,SW,231,4.0,9.0,76,0.00,,,0.00,Wunderground v.1.15,2013-08-03 23:13:00,
2013-08-03 19:14:00,72.6,64.2,29.82,WSW,249,0.0,9.0,75,0.00,,,0.00,Wunderground v.1.15,2013-08-03 23:14:00,
2013-08-03 19:15:00,72.6,64.6,29.82,West,261,0.0,3.0,76,0.00,,,0.00,Wunderground v.1.15,2013-08-03 23:15:00,
2013-08-03 19:16:00,72.6,64.6,29.82,SSW,199,1.0,3.0,76,0.00,,,0.00,Wunderground v.1.15,2013-08-03 23:16:00,
2013-08-03 19:18:00,72.6,64.6,29.82,SW,221,2.0,6.0,76,0.00,,,0.00,Wunderground v.1.15,2013-08-03 23:18:00,
2013-08-03 19:20:00,72.5,64.5,29.82,SSW,212,2.0,6.0,76,0.00,,,0.00,Wunderground v.1.15,2013-08-03 23:20:00,
2013-08-03 19:21:00,72.5,64.5,29.82,SW,223,1.0,6.0,76,0.00,,,0.00,Wunderground v.1.15,2013-08-03 23:21:00,
2013-08-03 19:23:00,72.5,64.5,29.82,SSW,211,3.0,7.0,76,0.00,,,0.00,Wunderground v.1.15,2013-08-03 23:23:00,
2013-08-03 19:25:00,72.3,64.3,29.82,South,178,3.0,9.0,76,0.00,,,0.00,Wunderground v.1.15,2013-08-03 23:25:00,
2013-08-03 19:26:00,72.3,64.3,29.82,SSW,207,4.0,9.0,76,0.00,,,0.00,Wunderground v.1.15,2013-08-03 23:26:00,
2013-08-03 19:28:00,72.2,64.6,29.82,SSW,203,1.0,9.0,77,0.00,,,0.00,Wunderground v.1.15,2013-08-03 23:28:00,
2013-08-03 19:29:00,72.2,64.6,29.82,SSW,203,3.0,9.0,77,0.00,,,0.00,Wunderground v.1.15,2013-08-03 23:29:00,
2013-08-03 19:31:00,72.1,64.5,29.82,WSW,239,6.0,9.0,77,0.00,,,0.00,Wunderground v.1.15,2013-08-03 23:31:00,
2013-08-03 19:32:00,72.0,64.4,29.82,SW,216,2.0,9.0,77,0.00,,,0.00,Wunderground v.1.15,2013-08-03 23:32:00,
2013-08-03 19:34:00,71.8,64.2,29.82,SW,227,1.0,9.0,77,0.00,,,0.00,Wunderground v.1.15,2013-08-03 23:34:00,
2013-08-03 19:36:00,71.8,64.6,29.82,SW,229,3.0,4.0,78,0.00,,,0.00,Wunderground v.1.15,2013-08-03 23:36:00,
2013-08-03 19:37:00,71.7,64.5,29.82,SW,227,1.0,4.0,78,0.00,,,0.00,Wunderground v.1.15,2013-08-03 23:37:00,
2013-08-03 19:39:00,71.6,64.4,29.82,SW,226,2.0,4.0,78,0.00,,,0.00,Wunderground v.1.15,2013-08-03 23:39:00,
2013-08-03 19:41:00,71.5,64.3,29.83,WSW,247,5.0,5.0,78,0.00,,,0.00,Wunderground v.1.15,2013-08-03 23:41:00,
2013-08-03 19:42:00,71.4,64.2,29.82,SSW,211,2.0,6.0,78,0.00,,,0.00,Wunderground v.1.15,2013-08-03 23:42:00,
2013-08-03 19:44:00,71.4,64.5,29.83,SW,216,1.0,6.0,79,0.00,,,0.00,Wunderground v.1.15,2013-08-03 23:44:00,
2013-08-03 19:46:00,71.3,64.4,29.82,SW,232,1.0,4.0,79,0.00,,,0.00,Wunderground v.1.15,2013-08-03 23:46:00,
2013-08-03 19:48:00,71.2,64.0,29.82,SW,232,4.0,5.0,78,0.00,,,0.00,Wunderground v.1.15,2013-08-03 23:48:00,
2013-08-03 19:49:00,71.1,63.9,29.83,SSW,198,2.0,7.0,78,0.00,,,0.00,Wunderground v.1.15,2013-08-03 23:49:00,
2013-08-03 19:51:00,71.0,64.2,29.83,SW,223,4.0,7.0,79,0.00,,,0.00,Wunderground v.1.15,2013-08-03 23:51:00,
2013-08-03 19:52:00,71.0,64.2,29.83,SW,223,2.0,7.0,79,0.00,,,0.00,Wunderground v.1.15,2013-08-03 23:52:00,
2013-08-03 19:53:00,71.0,63.8,29.83,South,182,4.0,7.0,78,0.00,,,0.00,Wunderground v.1.15,2013-08-03 23:53:00,
2013-08-03 19:54:00,70.9,63.7,29.83,SW,227,4.0,9.0,78,0.00,,,0.00,Wunderground v.1.15,2013-08-03 23:54:00,
2013-08-03 19:56:00,70.8,63.6,29.83,WSW,240,6.0,6.0,78,0.00,,,0.00,Wunderground v.1.15,2013-08-03 23:56:00,
2013-08-03 19:57:00,70.8,63.6,29.83,WSW,250,2.0,6.0,78,0.00,,,0.00,Wunderground v.1.15,2013-08-03 23:57:00,
2013-08-03 19:58:00,70.7,63.5,29.83,WSW,250,0.0,6.0,78,0.00,,,0.00,Wunderground v.1.15,2013-08-03 23:58:00,
2013-08-03 19:59:00,70.7,63.5,29.83,SW,219,2.0,7.0,78,0.00,,,0.00,Wunderground v.1.15,2013-08-03 23:59:00,
2013-08-03 20:02:00,70.6,63.8,29.83,SSW,206,1.0,7.0,79,0.00,,,0.00,Wunderground v.1.15,2013-08-04 00:02:00,
2013-08-03 20:03:00,70.5,63.7,29.83,SSW,207,4.0,7.0,79,0.00,,,0.00,Wunderground v.1.15,2013-08-04 00:03:00,
2013-08-03 20:04:00,70.4,63.6,29.83,SW,217,3.0,7.0,79,0.00,,,0.00,Wunderground v.1.15,2013-08-04 00:04:00,
2013-08-03 20:07:00,70.4,63.6,29.83,South,190,3.0,4.0,79,0.00,,,0.00,Wunderground v.1.15,2013-08-04 00:07:00,
2013-08-03 20:08:00,70.3,63.5,29.83,SSW,203,2.0,4.0,79,0.00,,,0.00,Wunderground v.1.15,2013-08-04 00:08:00,
2013-08-03 20:09:00,70.3,63.8,29.83,SW,214,1.0,4.0,80,0.00,,,0.00,Wunderground v.1.15,2013-08-04 00:09:00,
2013-08-03 20:12:00,70.1,63.6,29.84,WSW,247,1.0,8.0,80,0.00,,,0.00,Wunderground v.1.15,2013-08-04 00:12:00,
2013-08-03 20:13:00,70.1,63.6,29.84,SW,222,6.0,9.0,80,0.00,,,0.00,Wunderground v.1.15,2013-08-04 00:13:00,
2013-08-03 20:14:00,70.1,63.3,29.84,SW,236,2.0,9.0,79,0.00,,,0.00,Wunderground v.1.15,2013-08-04 00:14:00,
2013-08-03 20:17:00,69.9,63.4,29.84,SSW,201,2.0,7.0,80,0.00,,,0.00,Wunderground v.1.15,2013-08-04 00:17:00,
2013-08-03 20:18:00,69.8,63.3,29.84,SSW,212,2.0,7.0,80,0.00,,,0.00,Wunderground v.1.15,2013-08-04 00:18:00,
2013-08-03 20:19:00,69.8,63.3,29.84,SW,214,1.0,7.0,80,0.00,,,0.00,Wunderground v.1.15,2013-08-04 00:19:00,
2013-08-03 20:20:00,69.7,63.3,29.84,SSW,204,2.0,7.0,80,0.00,,,0.00,Wunderground v.1.15,2013-08-04 00:20:00,
2013-08-03 20:22:00,69.5,63.1,29.84,SSE,166,0.0,7.0,80,0.00,,,0.00,Wunderground v.1.15,2013-08-04 00:22:00,
2013-08-03 20:23:00,69.5,63.1,29.84,South,188,6.0,9.0,80,0.00,,,0.00,Wunderground v.1.15,2013-08-04 00:23:00,
2013-08-03 20:24:00,69.5,63.1,29.84,SSW,200,1.0,9.0,80,0.00,,,0.00,Wunderground v.1.15,2013-08-04 00:24:00,
2013-08-03 20:25:00,69.4,63.0,29.84,SSW,209,0.0,3.0,80,0.00,,,0.00,Wunderground v.1.15,2013-08-04 00:25:00,
2013-08-03 20:27:00,69.3,62.5,29.84,SSW,211,0.0,8.0,79,0.00,,,0.00,Wunderground v.1.15,2013-08-04 00:27:00,
2013-08-03 20:28:00,69.3,62.9,29.84,South,179,5.0,8.0,80,0.00,,,0.00,Wunderground v.1.15,2013-08-04 00:28:00,
2013-08-03 20:29:00,69.2,62.4,29.84,West,275,7.0,8.0,79,0.00,,,0.00,Wunderground v.1.15,2013-08-04 00:29:00,
2013-08-03 20:30:00,69.1,62.3,29.84,SW,234,5.0,8.0,79,0.00,,,0.00,Wunderground v.1.15,2013-08-04 00:30:00,
2013-08-03 20:32:00,69.0,62.2,29.84,SW,232,2.0,8.0,79,0.00,,,0.00,Wunderground v.1.15,2013-08-04 00:32:00,
2013-08-03 20:34:00,69.0,61.9,29.84,WSW,255,3.0,8.0,78,0.00,,,0.00,Wunderground v.1.15,2013-08-04 00:34:00,
2013-08-03 20:36:00,68.9,61.8,29.85,SW,223,3.0,7.0,78,0.00,,,0.00,Wunderground v.1.15,2013-08-04 00:36:00,
2013-08-03 20:38:00,68.8,62.0,29.85,SW,229,2.0,7.0,79,0.00,,,0.00,Wunderground v.1.15,2013-08-04 00:38:00,
2013-08-03 20:39:00,68.8,62.0,29.85,SW,233,3.0,7.0,79,0.00,,,0.00,Wunderground v.1.15,2013-08-04 00:39:00,
2013-08-03 20:42:00,68.6,61.8,29.85,SSW,202,1.0,7.0,79,0.00,,,0.00,Wunderground v.1.15,2013-08-04 00:42:00,
2013-08-03 20:43:00,68.6,61.8,29.85,SSW,202,1.0,7.0,79,0.00,,,0.00,Wunderground v.1.15,2013-08-04 00:43:00,
2013-08-03 20:44:00,68.5,61.7,29.85,WSW,245,3.0,7.0,79,0.00,,,0.00,Wunderground v.1.15,2013-08-04 00:44:00,
2013-08-03 20:48:00,68.3,61.5,29.86,WSW,258,2.0,4.0,79,0.00,,,0.00,Wunderground v.1.15,2013-08-04 00:48:00,
2013-08-03 20:49:00,68.3,61.5,29.86,WSW,258,1.0,4.0,79,0.00,,,0.00,Wunderground v.1.15,2013-08-04 00:49:00,
2013-08-03 20:53:00,68.1,61.3,29.86,SW,235,1.0,8.0,79,0.00,,,0.00,Wunderground v.1.15,2013-08-04 00:53:00,
2013-08-03 20:54:00,68.0,61.6,29.86,SW,235,1.0,8.0,80,0.00,,,0.00,Wunderground v.1.15,2013-08-04 00:54:00,
2013-08-03 20:55:00,68.0,61.6,29.86,SSW,213,3.0,8.0,80,0.00,,,0.00,Wunderground v.1.15,2013-08-04 00:55:00,
2013-08-03 20:58:00,67.9,61.1,29.86,SSW,211,2.0,5.0,79,0.00,,,0.00,Wunderground v.1.15,2013-08-04 00:58:00,
2013-08-03 20:59:00,67.8,61.0,29.86,SSW,211,0.0,5.0,79,0.00,,,0.00,Wunderground v.1.15,2013-08-04 00:59:00,
2013-08-03 21:00:00,67.8,61.4,29.86,SSW,207,3.0,5.0,80,0.00,,,0.00,Wunderground v.1.15,2013-08-04 01:00:00,
2013-08-03 21:03:00,67.8,61.0,29.86,SW,236,2.0,5.0,79,0.00,,,0.00,Wunderground v.1.15,2013-08-04 01:03:00,
2013-08-03 21:04:00,67.7,61.0,29.86,SW,236,2.0,5.0,79,0.00,,,0.00,Wunderground v.1.15,2013-08-04 01:04:00,
2013-08-03 21:05:00,67.7,61.3,29.86,SW,236,3.0,3.0,80,0.00,,,0.00,Wunderground v.1.15,2013-08-04 01:05:00,
2013-08-03 21:08:00,67.5,60.8,29.86,SW,214,0.0,6.0,79,0.00,,,0.00,Wunderground v.1.15,2013-08-04 01:08:00,
2013-08-03 21:09:00,67.5,60.8,29.86,SW,214,0.0,6.0,79,0.00,,,0.00,Wunderground v.1.15,2013-08-04 01:09:00,
2013-08-03 21:10:00,67.4,60.7,29.86,SW,214,2.0,6.0,79,0.00,,,0.00,Wunderground v.1.15,2013-08-04 01:10:00,
2013-08-03 21:13:00,67.3,60.9,29.86,WSW,246,2.0,7.0,80,0.00,,,0.00,Wunderground v.1.15,2013-08-04 01:13:00,
2013-08-03 21:14:00,67.2,60.8,29.86,SW,225,0.0,7.0,80,0.00,,,0.00,Wunderground v.1.15,2013-08-04 01:14:00,
2013-08-03 21:15:00,67.2,60.8,29.86,SW,215,4.0,4.0,80,0.00,,,0.00,Wunderground v.1.15,2013-08-04 01:15:00,
2013-08-03 21:18:00,67.0,60.6,29.86,SW,236,3.0,4.0,80,0.00,,,0.00,Wunderground v.1.15,2013-08-04 01:18:00,
2013-08-03 21:19:00,67.0,60.6,29.86,SSW,206,2.0,4.0,80,0.00,,,0.00,Wunderground v.1.15,2013-08-04 01:19:00,
2013-08-03 21:20:00,67.0,61.0,29.86,SSW,206,2.0,4.0,81,0.00,,,0.00,Wunderground v.1.15,2013-08-04 01:20:00,
2013-08-03 21:23:00,66.8,60.8,29.86,SW,233,1.0,4.0,81,0.00,,,0.00,Wunderground v.1.15,2013-08-04 01:23:00,
2013-08-03 21:25:00,66.7,60.7,29.86,SW,233,1.0,2.0,81,0.00,,,0.00,Wunderground v.1.15,2013-08-04 01:25:00,
2013-08-03 21:26:00,66.7,60.7,29.86,SW,233,1.0,2.0,81,0.00,,,0.00,Wunderground v.1.15,2013-08-04 01:26:00,
2013-08-03 21:29:00,66.5,60.5,29.86,SSW,210,0.0,4.0,81,0.00,,,0.00,Wunderground v.1.15,2013-08-04 01:29:00,
2013-08-03 21:30:00,66.5,60.5,29.86,SSW,210,0.0,4.0,81,0.00,,,0.00,Wunderground v.1.15,2013-08-04 01:30:00,
2013-08-03 21:31:00,66.5,60.5,29.87,SSW,210,0.0,4.0,81,0.00,,,0.00,Wunderground v.1.15,2013-08-04 01:31:00,
2013-08-03 21:32:00,66.5,60.5,29.86,SW,220,2.0,4.0,81,0.00,,,0.00,Wunderground v.1.15,2013-08-04 01:32:00,
2013-08-03 21:34:00,66.3,60.6,29.86,SW,232,4.0,7.0,82,0.00,,,0.00,Wunderground v.1.15,2013-08-04 01:34:00,
2013-08-03 21:35:00,66.3,60.6,29.86,SW,236,3.0,4.0,82,0.00,,,0.00,Wunderground v.1.15,2013-08-04 01:35:00,
2013-08-03 21:36:00,66.2,60.5,29.86,SW,236,0.0,4.0,82,0.00,,,0.00,Wunderground v.1.15,2013-08-04 01:36:00,
2013-08-03 21:37:00,66.2,60.5,29.86,WSW,249,3.0,4.0,82,0.00,,,0.00,Wunderground v.1.15,2013-08-04 01:37:00,
2013-08-03 21:39:00,66.1,60.4,29.87,SW,223,0.0,4.0,82,0.00,,,0.00,Wunderground v.1.15,2013-08-04 01:39:00,
2013-08-03 21:40:00,66.0,60.3,29.87,SW,223,1.0,4.0,82,0.00,,,0.00,Wunderground v.1.15,2013-08-04 01:40:00,
2013-08-03 21:41:00,66.0,60.7,29.87,SW,223,3.0,4.0,83,0.00,,,0.00,Wunderground v.1.15,2013-08-04 01:41:00,
2013-08-03 21:42:00,65.9,60.6,29.87,SW,223,0.0,4.0,83,0.00,,,0.00,Wunderground v.1.15,2013-08-04 01:42:00,
2013-08-03 21:45:00,65.9,60.6,29.87,SW,221,2.0,3.0,83,0.00,,,0.00,Wunderground v.1.15,2013-08-04 01:45:00,
2013-08-03 21:46:00,65.8,60.5,29.86,SW,218,4.0,5.0,83,0.00,,,0.00,Wunderground v.1.15,2013-08-04 01:46:00,
2013-08-03 21:47:00,65.7,60.4,29.87,SW,219,1.0,5.0,83,0.00,,,0.00,Wunderground v.1.15,2013-08-04 01:47:00,
2013-08-03 21:50:00,65.6,60.6,29.86,SW,227,6.0,8.0,84,0.00,,,0.00,Wunderground v.1.15,2013-08-04 01:50:00,
2013-08-03 21:51:00,65.6,60.6,29.87,SSW,213,0.0,8.0,84,0.00,,,0.00,Wunderground v.1.15,2013-08-04 01:51:00,
2013-08-03 21:52:00,65.5,60.5,29.87,SW,218,2.0,8.0,84,0.00,,,0.00,Wunderground v.1.15,2013-08-04 01:52:00,
2013-08-03 21:55:00,65.5,60.5,29.87,SSW,209,2.0,3.0,84,0.00,,,0.00,Wunderground v.1.15,2013-08-04 01:55:00,
2013-08-03 21:56:00,65.4,60.4,29.87,SSW,205,2.0,5.0,84,0.00,,,0.00,Wunderground v.1.15,2013-08-04 01:56:00,
2013-08-03 21:58:00,65.3,60.3,29.87,SW,225,1.0,5.0,84,0.00,,,0.00,Wunderground v.1.15,2013-08-04 01:58:00,
2013-08-03 22:00:00,65.3,60.7,29.87,SW,217,1.0,5.0,85,0.00,,,0.00,Wunderground v.1.15,2013-08-04 02:00:00,
2013-08-03 22:01:00,65.3,60.7,29.87,WNW,295,3.0,5.0,85,0.00,,,0.00,Wunderground v.1.15,2013-08-04 02:01:00,
2013-08-03 22:03:00,65.2,60.6,29.86,SW,233,4.0,8.0,85,0.00,,,0.00,Wunderground v.1.15,2013-08-04 02:03:00,
2013-08-03 22:05:00,65.2,60.6,29.87,NNW,337,3.0,4.0,85,0.00,,,0.00,Wunderground v.1.15,2013-08-04 02:05:00,
2013-08-03 22:06:00,65.1,60.5,29.86,NNW,333,0.0,4.0,85,0.00,,,0.00,Wunderground v.1.15,2013-08-04 02:06:00,
2013-08-03 22:07:00,65.1,60.5,29.87,NW,318,2.0,4.0,85,0.00,,,0.00,Wunderground v.1.15,2013-08-04 02:07:00,
2013-08-03 22:08:00,65.1,60.5,29.87,North,351,4.0,5.0,85,0.00,,,0.00,Wunderground v.1.15,2013-08-04 02:08:00,
2013-08-03 22:09:00,65.1,60.5,29.87,WNW,302,4.0,5.0,85,0.00,,,0.00,Wunderground v.1.15,2013-08-04 02:09:00,
2013-08-03 22:10:00,65.0,60.4,29.87,NW,309,0.0,6.0,85,0.00,,,0.00,Wunderground v.1.15,2013-08-04 02:10:00,
2013-08-03 22:11:00,65.0,60.4,29.87,NW,309,0.0,6.0,85,0.00,,,0.00,Wunderground v.1.15,2013-08-04 02:11:00,
2013-08-03 22:12:00,65.0,60.4,29.87,WNW,302,1.0,6.0,85,0.00,,,0.00,Wunderground v.1.15,2013-08-04 02:12:00,
2013-08-03 22:13:00,65.0,60.4,29.87,NW,323,2.0,6.0,85,0.00,,,0.00,Wunderground v.1.15,2013-08-04 02:13:00,
2013-08-03 22:14:00,65.0,60.4,29.87,NW,323,1.0,6.0,85,0.00,,,0.00,Wunderground v.1.15,2013-08-04 02:14:00,
2013-08-03 22:15:00,64.9,60.3,29.87,NW,316,2.0,2.0,85,0.00,,,0.00,Wunderground v.1.15,2013-08-04 02:15:00,
2013-08-03 22:16:00,64.9,60.3,29.87,NW,319,3.0,3.0,85,0.00,,,0.00,Wunderground v.1.15,2013-08-04 02:16:00,
2013-08-03 22:17:00,64.9,60.3,29.87,North,350,2.0,4.0,85,0.00,,,0.00,Wunderground v.1.15,2013-08-04 02:17:00,
2013-08-03 22:19:00,64.9,60.3,29.87,NW,321,3.0,5.0,85,0.00,,,0.00,Wunderground v.1.15,2013-08-04 02:19:00,
2013-08-03 22:21:00,64.8,60.5,29.87,NW,322,3.0,5.0,86,0.00,,,0.00,Wunderground v.1.15,2013-08-04 02:21:00,
2013-08-03 22:22:00,64.8,60.5,29.87,NNW,348,1.0,5.0,86,0.00,,,0.00,Wunderground v.1.15,2013-08-04 02:22:00,
2013-08-03 22:24:00,64.7,60.4,29.87,NNW,342,1.0,5.0,86,0.00,,,0.00,Wunderground v.1.15,2013-08-04 02:24:00,
2013-08-03 22:26:00,64.7,60.4,29.87,NNW,342,0.0,3.0,86,0.00,,,0.00,Wunderground v.1.15,2013-08-04 02:26:00,
2013-08-03 22:27:00,64.6,60.3,29.87,NNW,342,0.0,3.0,86,0.00,,,0.00,Wunderground v.1.15,2013-08-04 02:27:00,
2013-08-03 22:29:00,64.5,60.2,29.87,NNW,342,1.0,3.0,86,0.00,,,0.00,Wunderground v.1.15,2013-08-04 02:29:00,
2013-08-03 22:30:00,64.5,60.2,29.87,NNW,342,1.0,3.0,86,0.00,,,0.00,Wunderground v.1.15,2013-08-04 02:30:00,
2013-08-03 22:31:00,64.5,60.2,29.87,NNW,342,2.0,3.0,86,0.00,,,0.00,Wunderground v.1.15,2013-08-04 02:31:00,
2013-08-03 22:32:00,64.4,60.1,29.87,NNW,342,1.0,3.0,86,0.00,,,0.00,Wunderground v.1.15,2013-08-04 02:32:00,
2013-08-03 22:33:00,64.4,60.1,29.87,NNW,342,3.0,3.0,86,0.00,,,0.00,Wunderground v.1.15,2013-08-04 02:33:00,
2013-08-03 22:35:00,64.3,60.0,29.87,North,351,2.0,2.0,86,0.00,,,0.00,Wunderground v.1.15,2013-08-04 02:35:00,
2013-08-03 22:36:00,64.3,60.0,29.87,North,355,2.0,3.0,86,0.00,,,0.00,Wunderground v.1.15,2013-08-04 02:36:00,
2013-08-03 22:38:00,64.2,60.2,29.87,NNW,327,2.0,3.0,87,0.00,,,0.00,Wunderground v.1.15,2013-08-04 02:38:00,
2013-08-03 22:40:00,64.1,60.2,29.87,NNW,327,0.0,3.0,87,0.00,,,0.00,Wunderground v.1.15,2013-08-04 02:40:00,
2013-08-03 22:41:00,64.1,60.2,29.87,NNW,329,2.0,3.0,87,0.00,,,0.00,Wunderground v.1.15,2013-08-04 02:41:00,
2013-08-03 22:43:00,64.0,60.1,29.87,NNW,329,0.0,3.0,87,0.00,,,0.00,Wunderground v.1.15,2013-08-04 02:43:00,
2013-08-03 22:45:00,63.9,60.0,29.87,NNW,329,0.0,1.0,87,0.00,,,0.00,Wunderground v.1.15,2013-08-04 02:45:00,
2013-08-03 22:47:00,63.9,60.0,29.87,NNW,330,2.0,3.0,87,0.00,,,0.00,Wunderground v.1.15,2013-08-04 02:47:00,
2013-08-03 22:48:00,63.9,60.0,29.87,NNW,330,0.0,3.0,87,0.00,,,0.00,Wunderground v.1.15,2013-08-04 02:48:00,
2013-08-03 22:50:00,63.8,59.9,29.87,NNW,330,1.0,3.0,87,0.00,,,0.00,Wunderground v.1.15,2013-08-04 02:50:00,
2013-08-03 22:51:00,63.8,59.9,29.87,NNW,330,0.0,3.0,87,0.00,,,0.00,Wunderground v.1.15,2013-08-04 02:51:00,
2013-08-03 22:52:00,63.8,59.9,29.88,NNW,330,0.0,3.0,87,0.00,,,0.00,Wunderground v.1.15,2013-08-04 02:52:00,
2013-08-03 22:53:00,63.8,59.9,29.87,NNW,330,0.0,3.0,87,0.00,,,0.00,Wunderground v.1.15,2013-08-04 02:53:00,
2013-08-03 22:55:00,63.7,59.8,29.87,NNW,330,1.0,3.0,87,0.00,,,0.00,Wunderground v.1.15,2013-08-04 02:55:00,
2013-08-03 22:56:00,63.7,59.8,29.87,NNW,330,0.0,3.0,87,0.00,,,0.00,Wunderground v.1.15,2013-08-04 02:56:00,
2013-08-03 22:57:00,63.7,59.8,29.87,NNW,330,1.0,3.0,87,0.00,,,0.00,Wunderground v.1.15,2013-08-04 02:57:00,
2013-08-03 22:58:00,63.7,59.8,29.87,NNW,330,0.0,3.0,87,0.00,,,0.00,Wunderground v.1.15,2013-08-04 02:58:00,
2013-08-03 23:00:00,63.6,59.7,29.87,WNW,296,2.0,4.0,87,0.00,,,0.00,Wunderground v.1.15,2013-08-04 03:00:00,
2013-08-03 23:01:00,63.6,59.7,29.87,WNW,298,0.0,4.0,87,0.00,,,0.00,Wunderground v.1.15,2013-08-04 03:01:00,
2013-08-03 23:02:00,63.6,59.7,29.87,WNW,298,1.0,4.0,87,0.00,,,0.00,Wunderground v.1.15,2013-08-04 03:02:00,
2013-08-03 23:03:00,63.6,60.0,29.87,NW,312,2.0,4.0,88,0.00,,,0.00,Wunderground v.1.15,2013-08-04 03:03:00,
2013-08-03 23:05:00,63.5,59.9,29.87,NW,315,2.0,2.0,88,0.00,,,0.00,Wunderground v.1.15,2013-08-04 03:05:00,
2013-08-03 23:06:00,63.5,59.9,29.87,NW,325,3.0,3.0,88,0.00,,,0.00,Wunderground v.1.15,2013-08-04 03:06:00,
2013-08-03 23:08:00,63.5,59.9,29.88,NNW,335,1.0,4.0,88,0.00,,,0.00,Wunderground v.1.15,2013-08-04 03:08:00,
2013-08-03 23:09:00,63.5,59.9,29.87,North,350,4.0,6.0,88,0.00,,,0.00,Wunderground v.1.15,2013-08-04 03:09:00,
2013-08-03 23:11:00,63.4,59.8,29.87,North,350,0.0,6.0,88,0.00,,,0.00,Wunderground v.1.15,2013-08-04 03:11:00,
2013-08-03 23:12:00,63.4,59.8,29.87,North,350,2.0,6.0,88,0.00,,,0.00,Wunderground v.1.15,2013-08-04 03:12:00,
2013-08-03 23:13:00,63.4,59.8,29.88,North,350,1.0,6.0,88,0.00,,,0.00,Wunderground v.1.15,2013-08-04 03:13:00,
2013-08-03 23:14:00,63.4,59.8,29.87,NNW,338,0.0,6.0,88,0.00,,,0.00,Wunderground v.1.15,2013-08-04 03:14:00,
2013-08-03 23:16:00,63.4,59.8,29.87,NNW,339,0.0,4.0,88,0.00,,,0.00,Wunderground v.1.15,2013-08-04 03:16:00,
2013-08-03 23:17:00,63.4,59.8,29.87,NNW,339,0.0,4.0,88,0.00,,,0.00,Wunderground v.1.15,2013-08-04 03:17:00,
2013-08-03 23:19:00,63.4,59.8,29.87,NNW,338,0.0,4.0,88,0.00,,,0.00,Wunderground v.1.15,2013-08-04 03:19:00,
2013-08-03 23:20:00,63.3,59.7,29.87,NNW,339,1.0,4.0,88,0.00,,,0.00,Wunderground v.1.15,2013-08-04 03:20:00,
2013-08-03 23:21:00,63.3,59.7,29.88,NNW,338,1.0,4.0,88,0.00,,,0.00,Wunderground v.1.15,2013-08-04 03:21:00,
2013-08-03 23:22:00,63.3,59.7,29.88,NNW,338,0.0,4.0,88,0.00,,,0.00,Wunderground v.1.15,2013-08-04 03:22:00,
2013-08-03 23:24:00,63.2,59.6,29.88,NNW,338,1.0,4.0,88,0.00,,,0.00,Wunderground v.1.15,2013-08-04 03:24:00,
2013-08-03 23:25:00,63.2,59.6,29.88,NNW,338,2.0,2.0,88,0.00,,,0.00,Wunderground v.1.15,2013-08-04 03:25:00,
2013-08-03 23:26:00,63.2,59.6,29.88,NW,309,4.0,5.0,88,0.00,,,0.00,Wunderground v.1.15,2013-08-04 03:26:00,
2013-08-03 23:27:00,63.2,59.6,29.88,NW,305,0.0,5.0,88,0.00,,,0.00,Wunderground v.1.15,2013-08-04 03:27:00,
2013-08-03 23:29:00,63.1,59.5,29.88,North,355,4.0,5.0,88,0.00,,,0.00,Wunderground v.1.15,2013-08-04 03:29:00,
2013-08-03 23:30:00,63.1,59.5,29.88,North,350,2.0,5.0,88,0.00,,,0.00,Wunderground v.1.15,2013-08-04 03:30:00,
2013-08-03 23:32:00,63.1,59.5,29.88,North,350,0.0,5.0,88,0.00,,,0.00,Wunderground v.1.15,2013-08-04 03:32:00,
2013-08-03 23:33:00,63.1,59.5,29.88,North,350,1.0,5.0,88,0.00,,,0.00,Wunderground v.1.15,2013-08-04 03:33:00,
2013-08-03 23:34:00,63.1,59.5,29.88,WNW,298,2.0,5.0,88,0.00,,,0.00,Wunderground v.1.15,2013-08-04 03:34:00,
2013-08-03 23:35:00,63.1,59.5,29.88,NNW,333,1.0,2.0,88,0.00,,,0.00,Wunderground v.1.15,2013-08-04 03:35:00,
2013-08-03 23:36:00,62.5,58.9,29.87,NW,323,3.0,3.0,88,0.00,,,0.00,Wunderground v.1.15,2013-08-04 03:36:00,
2013-08-03 23:37:00,63.0,59.4,29.88,NNW,335,1.0,4.0,88,0.00,,,0.00,Wunderground v.1.15,2013-08-04 03:37:00,
2013-08-03 23:38:00,63.0,59.4,29.88,NNW,335,0.0,4.0,88,0.00,,,0.00,Wunderground v.1.15,2013-08-04 03:38:00,
2013-08-03 23:39:00,63.0,59.4,29.88,NNW,335,1.0,4.0,88,0.00,,,0.00,Wunderground v.1.15,2013-08-04 03:39:00,
2013-08-03 23:40:00,63.0,59.4,29.88,NNW,335,0.0,4.0,88,0.00,,,0.00,Wunderground v.1.15,2013-08-04 03:40:00,
2013-08-03 23:41:00,62.3,58.7,29.87,NW,323,0.0,1.0,88,0.00,,,0.00,Wunderground v.1.15,2013-08-04 03:41:00,
2013-08-03 23:42:00,62.9,59.3,29.87,NNW,336,0.0,4.0,88,0.00,,,0.00,Wunderground v.1.15,2013-08-04 03:42:00,
2013-08-03 23:43:00,62.9,59.3,29.87,NNW,336,1.0,4.0,88,0.00,,,0.00,Wunderground v.1.15,2013-08-04 03:43:00,
2013-08-03 23:44:00,62.9,59.3,29.87,NNW,336,0.0,4.0,88,0.00,,,0.00,Wunderground v.1.15,2013-08-04 03:44:00,
2013-08-03 23:45:00,62.9,59.3,29.87,NNW,336,3.0,3.0,88,0.00,,,0.00,Wunderground v.1.15,2013-08-04 03:45:00,
2013-08-03 23:47:00,62.8,59.2,29.87,NW,323,2.0,3.0,88,0.00,,,0.00,Wunderground v.1.15,2013-08-04 03:47:00,
2013-08-03 23:48:00,62.8,59.2,29.87,NW,323,2.0,3.0,88,0.00,,,0.00,Wunderground v.1.15,2013-08-04 03:48:00,
2013-08-03 23:49:00,62.8,59.2,29.87,NW,323,0.0,3.0,88,0.00,,,0.00,Wunderground v.1.15,2013-08-04 03:49:00,
2013-08-03 23:50:00,62.8,59.2,29.87,NW,323,2.0,3.0,88,0.00,,,0.00,Wunderground v.1.15,2013-08-04 03:50:00,
2013-08-03 23:52:00,62.7,59.1,29.87,NW,323,0.0,3.0,88,0.00,,,0.00,Wunderground v.1.15,2013-08-04 03:52:00,
2013-08-03 23:53:00,62.7,59.1,29.87,NW,323,0.0,3.0,88,0.00,,,0.00,Wunderground v.1.15,2013-08-04 03:53:00,
2013-08-03 23:55:00,62.7,59.1,29.87,NW,323,1.0,3.0,88,0.00,,,0.00,Wunderground v.1.15,2013-08-04 03:55:00,
2013-08-03 23:58:00,62.6,59.0,29.87,NW,323,0.0,3.0,88,0.00,,,0.00,Wunderground v.1.15,2013-08-04 03:58:00,